EW6603 Weather Reports


Display with metric or nautical units.
time (UTC)temp
F
wind
direction
speed
MPH
gust
MPH
rain 1hr
in
rain 24hr
in
rain mn
in
humidity
%
barometer
mb
20260510133133 69 80 0.0 1.0 0.00 0.00 0.00 69 1013.8
20260510133120 69 80 0.0 1.0 0.00 0.00 0.00 69 1013.5
20260510133015 69 76 0.0 1.0 0.00 0.00 0.00 70 1013.8
20260510132923 69 90 0.0 1.0 0.00 0.00 0.00 69 1013.8
20260510132829 68 94 0.0 1.0 0.00 0.00 0.00 69 1013.8
20260510132728 68 103 0.0 1.0 0.00 0.00 0.00 71 1013.9
20260510132655 68 89 0.0 0.0 0.00 0.00 0.00 75 1013.9
20260510132511 67 329 0.0 0.0 0.00 0.00 0.00 73 1013.8
20260510132424 67 329 0.0 0.0 0.00 0.00 0.00 74 1013.8
20260510132310 67 275 0.0 0.0 0.00 0.00 0.00 74 1013.9
20260510132216 67 275 0.0 0.0 0.00 0.00 0.00 73 1013.9
20260510132123 66 275 0.0 0.0 0.00 0.00 0.00 74 1013.9
20260510132036 66 275 0.0 0.0 0.00 0.00 0.00 76 1013.8
20260510131921 66 286 0.0 0.0 0.00 0.00 0.00 76 1013.8
20260510131828 66 322 0.0 0.0 0.00 0.00 0.00 76 1013.8
20260510131718 65 46 0.0 0.0 0.00 0.00 0.00 78 1013.8
20260510131625 65 97 0.0 0.0 0.00 0.00 0.00 83 1013.8
20260510131524 64 97 0.0 0.0 0.00 0.00 0.00 80 1013.5
20260510131510 64 97 0.0 0.0 0.00 0.00 0.00 80 1013.8
20260510131424 64 97 0.0 0.0 0.00 0.00 0.00 79 1013.8
20260510131311 64 324 0.0 0.0 0.00 0.00 0.00 85 1013.8
20260510131220 63 324 0.0 0.0 0.00 0.00 0.00 85 1013.8
20260510131126 63 324 0.0 0.0 0.00 0.00 0.00 86 1013.8
20260510131013 63 324 0.0 0.0 0.00 0.00 0.00 88 1013.8
20260510130918 62 324 0.0 0.0 0.00 0.00 0.00 88 1013.8
20260510130831 62 324 0.0 0.0 0.00 0.00 0.00 89 1013.8
20260510130737 62 324 0.0 0.0 0.00 0.00 0.00 88 1013.8
20260510130650 62 324 0.0 0.0 0.00 0.00 0.00 89 1013.8
20260510130518 61 324 0.0 0.0 0.00 0.00 0.00 90 1013.8
20260510130420 61 324 0.0 0.0 0.00 0.00 0.00 91 1013.7
20260510130353 61 324 0.0 0.0 0.00 0.00 0.00 92 1013.7
20260510130219 60 239 0.0 0.0 0.00 0.00 0.00 92 1013.7
20260510130125 60 239 0.0 0.0 0.00 0.00 0.00 93 1013.7
20260510130057 60 239 0.0 0.0 0.00 0.00 0.00 94 1013.5
20260510130015 60 239 0.0 0.0 0.00 0.00 0.00 95 1013.8
20260510125921 60 239 0.0 0.0 0.00 0.00 0.00 96 1013.7
20260510125824 59 239 0.0 0.0 0.00 0.00 0.00 96 1013.7
20260510125734 59 239 0.0 0.0 0.00 0.00 0.00 96 1013.8
20260510125620 59 239 0.0 0.0 0.00 0.00 0.00 96 1013.7
20260510125526 59 239 0.0 0.0 0.00 0.00 0.00 96 1013.7
20260510125416 58 239 0.0 0.0 0.00 0.00 0.00 97 1013.7
20260510125322 58 239 0.0 0.0 0.00 0.00 0.00 97 1013.7
20260510125235 58 239 0.0 0.0 0.00 0.00 0.00 96 1013.8
20260510125122 58 239 0.0 0.0 0.00 0.00 0.00 96 1013.7
20260510125027 58 239 0.0 0.0 0.00 0.00 0.00 97 1013.8
20260510124917 58 239 0.0 0.0 0.00 0.00 0.00 97 1013.7
20260510124823 57 239 0.0 0.0 0.00 0.00 0.00 96 1013.8
20260510124756 57 239 0.0 0.0 0.00 0.00 0.00 96 1013.7
20260510124621 57 239 0.0 0.0 0.00 0.00 0.00 97 1013.7
20260510124606 56 239 0.0 0.0 0.00 0.00 0.00 97 1013.6
20260510124547 57 239 0.0 0.0 0.00 0.00 0.00 97 1013.8
20260510124413 57 239 0.0 0.0 0.00 0.00 0.00 96 1013.8
20260510124346 57 239 0.0 0.0 0.00 0.00 0.00 97 1013.8
20260510124212 56 239 0.0 0.0 0.00 0.00 0.00 97 1013.8
20260510124115 56 239 0.0 0.0 0.00 0.00 0.00 96 1013.8
20260510124011 56 239 0.0 0.0 0.00 0.00 0.00 97 1013.8
20260510123924 56 239 0.0 0.0 0.00 0.00 0.00 97 1013.8
20260510123828 56 239 0.0 0.0 0.00 0.00 0.00 96 1013.8
20260510123711 55 239 0.0 0.0 0.00 0.00 0.00 97 1013.7
20260510123621 55 239 0.0 0.0 0.00 0.00 0.00 97 1013.7
20260510123534 55 239 0.0 0.0 0.00 0.00 0.00 96 1013.8
20260510123420 55 239 0.0 0.0 0.00 0.00 0.00 96 1013.7
20260510123327 55 239 0.0 0.0 0.00 0.00 0.00 97 1013.7
20260510123213 54 239 0.0 0.0 0.00 0.00 0.00 97 1013.7
20260510123124 54 239 0.0 0.0 0.00 0.00 0.00 96 1013.7
20260510123040 54 239 0.0 0.0 0.00 0.00 0.00 96 1013.5
20260510123024 54 239 0.0 0.0 0.00 0.00 0.00 97 1013.7
20260510122931 54 239 0.0 0.0 0.00 0.00 0.00 97 1013.8
20260510122817 54 239 0.0 0.0 0.00 0.00 0.00 97 1013.8
20260510122720 54 239 0.0 0.0 0.00 0.00 0.00 96 1013.7
20260510122625 54 239 0.0 0.0 0.00 0.00 0.00 96 1013.7
20260510122512 53 239 0.0 0.0 0.00 0.00 0.00 96 1013.7
20260510122425 53 239 0.0 0.0 0.00 0.00 0.00 97 1013.7
20260510122339 53 239 0.0 0.0 0.00 0.00 0.00 97 1013.7
20260510122232 53 239 0.0 0.0 0.00 0.00 0.00 96 1013.7
20260510122110 53 239 0.0 0.0 0.00 0.00 0.00 96 1013.6
20260510122022 53 239 0.0 0.0 0.00 0.00 0.00 96 1013.6
20260510121933 53 239 0.0 0.0 0.00 0.00 0.00 97 1013.7
20260510121844 52 239 0.0 0.0 0.00 0.00 0.00 96 1013.7
20260510121726 52 239 0.0 0.0 0.00 0.00 0.00 96 1013.7
20260510121612 52 239 0.0 0.0 0.00 0.00 0.00 96 1013.8
20260510121546 52 239 0.0 0.0 0.00 0.00 0.00 96 1013.8
20260510121512 51 239 0.0 0.0 0.00 0.00 0.00 96 1013.5
20260510121410 52 239 0.0 0.0 0.00 0.00 0.00 96 1013.8
20260510121325 51 239 0.0 0.0 0.00 0.00 0.00 96 1013.8
20260510121215 51 239 0.0 0.0 0.00 0.00 0.00 96 1013.8
20260510121130 51 239 0.0 0.0 0.00 0.00 0.00 96 1013.8
20260510121034 51 239 0.0 0.0 0.00 0.00 0.00 96 1013.8
20260510120920 51 239 0.0 0.0 0.00 0.00 0.00 96 1013.7
20260510120847 51 239 0.0 0.0 0.00 0.00 0.00 96 1013.7
20260510120739 50 239 0.0 0.0 0.00 0.00 0.00 96 1013.7
20260510120617 50 239 0.0 0.0 0.00 0.00 0.00 96 1013.7
20260510120523 50 239 0.0 0.0 0.00 0.00 0.00 96 1013.7
20260510120409 50 239 0.0 0.0 0.00 0.00 0.00 96 1013.7
20260510120317 49 239 0.0 0.0 0.00 0.00 0.00 96 1013.7
20260510120249 49 239 0.0 0.0 0.00 0.00 0.00 96 1013.7
20260510120114 49 239 0.0 0.0 0.00 0.00 0.00 96 1013.7
20260510120054 48 239 0.0 0.0 0.00 0.00 0.00 96 1013.4
20260510120044 48 239 0.0 0.0 0.00 0.00 0.00 96 1013.7
20260510115936 48 239 0.0 0.0 0.00 0.00 0.00 96 1013.6
20260510115836 48 239 0.0 0.0 0.00 0.00 0.00 96 1013.5
20260510115722 48 239 0.0 0.0 0.00 0.00 0.00 96 1013.5
20260510115635 48 239 0.0 0.0 0.00 0.00 0.00 96 1013.4
20260510115541 47 239 0.0 0.0 0.00 0.00 0.00 96 1013.5
20260510115453 47 239 0.0 0.0 0.00 0.00 0.00 96 1013.5
20260510115323 47 239 0.0 0.0 0.00 0.00 0.00 96 1013.5
20260510115242 47 239 0.0 0.0 0.00 0.00 0.00 96 1013.5
20260510115133 47 239 0.0 0.0 0.00 0.00 0.00 96 1013.5
20260510115013 47 239 0.0 0.0 0.00 0.00 0.00 96 1013.4
20260510114926 46 239 0.0 0.0 0.00 0.00 0.00 96 1013.4
20260510114813 46 239 0.0 0.0 0.00 0.00 0.00 96 1013.4
20260510114723 46 239 0.0 0.0 0.00 0.00 0.00 96 1013.4
20260510114625 46 239 0.0 0.0 0.00 0.00 0.00 96 1013.5
20260510114532 45 239 0.0 0.0 0.00 0.00 0.00 96 1013.2
20260510114510 46 239 0.0 0.0 0.00 0.00 0.00 96 1013.4
20260510114443 46 239 0.0 0.0 0.00 0.00 0.00 96 1013.4
20260510114355 46 239 0.0 0.0 0.00 0.00 0.00 96 1013.4
20260510114310 45 239 0.0 0.0 0.00 0.00 0.00 96 1013.5
20260510114112 45 239 0.0 0.0 0.00 0.00 0.00 96 1013.5
20260510114029 45 239 0.0 0.0 0.00 0.00 0.00 96 1013.5
20260510113935 45 239 0.0 0.0 0.00 0.00 0.00 96 1013.5
20260510113841 45 239 0.0 0.0 0.00 0.00 0.00 96 1013.4
20260510113726 45 239 0.0 0.0 0.00 0.00 0.00 96 1013.4
20260510113613 45 239 0.0 0.0 0.00 0.00 0.00 96 1013.4
20260510113526 45 239 0.0 0.0 0.00 0.00 0.00 96 1013.4
20260510113436 44 239 0.0 0.0 0.00 0.00 0.00 96 1013.4
20260510113321 44 239 0.0 0.0 0.00 0.00 0.00 96 1013.4
20260510113235 44 239 0.0 0.0 0.00 0.00 0.00 96 1013.4
20260510113122 44 239 0.0 0.0 0.00 0.00 0.00 95 1013.4
20260510113027 44 239 0.0 0.0 0.00 0.00 0.00 95 1013.4
20260510113004 44 239 0.0 0.0 0.00 0.00 0.00 95 1013.2
20260510112933 44 239 0.0 0.0 0.00 0.00 0.00 95 1013.4
20260510112902 44 239 0.0 0.0 0.00 0.00 0.00 95 1013.4
20260510112719 44 239 0.0 0.0 0.00 0.00 0.00 95 1013.3
20260510112626 44 239 0.0 0.0 0.00 0.00 0.00 95 1013.3
20260510112512 44 239 0.0 0.0 0.00 0.00 0.00 95 1013.3
20260510112419 44 239 0.0 0.0 0.00 0.00 0.00 95 1013.3
20260510112310 43 239 0.0 0.0 0.00 0.00 0.00 95 1013.3
20260510112242 43 239 0.0 0.0 0.00 0.00 0.00 95 1013.3
20260510112154 43 239 0.0 0.0 0.00 0.00 0.00 95 1013.3
20260510112021 43 239 0.0 0.0 0.00 0.00 0.00 95 1013.3
20260510111925 43 239 0.0 0.0 0.00 0.00 0.00 95 1013.3
20260510111812 43 239 0.0 0.0 0.00 0.00 0.00 95 1013.3
20260510111738 43 239 0.0 0.0 0.00 0.00 0.00 95 1013.3
20260510111634 43 239 0.0 0.0 0.00 0.00 0.00 95 1013.2
20260510111520 43 239 0.0 0.0 0.00 0.00 0.00 95 1013.2
20260510111504 43 239 0.0 0.0 0.00 0.00 0.00 95 1013.0
20260510111442 43 239 0.0 0.0 0.00 0.00 0.00 95 1013.2
20260510111334 43 239 0.0 0.0 0.00 0.00 0.00 95 1013.1
20260510111220 43 239 0.0 0.0 0.00 0.00 0.00 95 1013.1
20260510111127 43 239 0.0 0.0 0.00 0.00 0.00 95 1013.1
20260510111017 43 239 0.0 0.0 0.00 0.00 0.00 95 1013.1
20260510110924 43 239 0.0 0.0 0.00 0.00 0.00 95 1013.1
20260510110810 43 239 0.0 0.0 0.00 0.00 0.00 95 1013.1
20260510110717 43 239 0.0 0.0 0.00 0.00 0.00 95 1013.1
20260510110630 43 239 0.0 0.0 0.00 0.00 0.00 95 1013.1
20260510110520 43 239 0.0 0.0 0.00 0.00 0.00 95 1013.0
20260510110427 43 239 0.0 0.0 0.00 0.00 0.00 95 1013.0
20260510110313 43 239 0.0 0.0 0.00 0.00 0.00 95 1013.0
20260510110220 43 239 0.0 0.0 0.00 0.00 0.00 95 1013.0
20260510110139 42 239 0.0 0.0 0.00 0.00 0.00 95 1012.8
20260510110126 43 239 0.0 0.0 0.00 0.00 0.00 95 1013.0
20260510110039 43 239 0.0 0.0 0.00 0.00 0.00 95 1013.0
20260510105921 43 239 0.0 0.0 0.00 0.00 0.00 95 1012.9
20260510105854 42 239 0.0 0.0 0.00 0.00 0.00 95 1013.0
20260510105735 42 239 0.0 0.0 0.00 0.00 0.00 95 1013.0
20260510105648 42 239 0.0 0.0 0.00 0.00 0.00 95 1013.0
20260510105513 42 239 0.0 0.0 0.00 0.00 0.00 95 1013.0
20260510105419 42 239 0.0 0.0 0.00 0.00 0.00 95 1013.0
20260510105325 42 239 0.0 0.0 0.00 0.00 0.00 95 1013.0
20260510105242 42 239 0.0 0.0 0.00 0.00 0.00 95 1013.0
20260510105128 42 239 0.0 0.0 0.00 0.00 0.00 95 1013.0
20260510105015 42 239 0.0 0.0 0.00 0.00 0.00 95 1013.0
20260510104922 42 239 0.0 0.0 0.00 0.00 0.00 95 1012.9
20260510104828 42 239 0.0 0.0 0.00 0.00 0.00 95 1012.9
20260510104715 42 239 0.0 0.0 0.00 0.00 0.00 95 1012.9
20260510104632 42 239 0.0 0.0 0.00 0.00 0.00 95 1012.9
20260510104558 42 239 0.0 0.0 0.00 0.00 0.00 95 1012.7
20260510104517 42 239 0.0 0.0 0.00 0.00 0.00 95 1012.9
20260510104423 42 239 0.0 0.0 0.00 0.00 0.00 95 1012.9
20260510104310 42 239 0.0 0.0 0.00 0.00 0.00 95 1012.9
20260510104243 42 239 0.0 0.0 0.00 0.00 0.00 95 1012.9
20260510104113 42 239 0.0 0.0 0.00 0.00 0.00 95 1012.9
20260510104022 42 239 0.0 0.0 0.00 0.00 0.00 95 1012.9
20260510103910 42 239 0.0 0.0 0.00 0.00 0.00 95 1012.9
20260510103822 42 239 0.0 0.0 0.00 0.00 0.00 95 1012.9
20260510103729 42 239 0.0 0.0 0.00 0.00 0.00 95 1012.9
20260510103614 42 239 0.0 0.0 0.00 0.00 0.00 95 1012.8
20260510103521 42 239 0.0 0.0 0.00 0.00 0.00 95 1012.7
20260510103412 42 239 0.0 0.0 0.00 0.00 0.00 94 1012.7
20260510103325 42 239 0.0 0.0 0.00 0.00 0.00 94 1012.7
20260510103230 42 239 0.0 0.0 0.00 0.00 0.00 94 1012.6
20260510103112 42 239 0.0 0.0 0.00 0.00 0.00 94 1012.7
20260510103053 41 239 0.0 0.0 0.00 0.00 0.00 94 1012.5
20260510103014 42 239 0.0 0.0 0.00 0.00 0.00 94 1012.6
20260510102920 42 239 0.0 0.0 0.00 0.00 0.00 94 1012.6
20260510102854 42 239 0.0 0.0 0.00 0.00 0.00 94 1012.6
20260510102731 42 239 0.0 0.0 0.00 0.00 0.00 94 1012.6
20260510102643 42 239 0.0 0.0 0.00 0.00 0.00 94 1012.6
20260510102509 42 239 0.0 0.0 0.00 0.00 0.00 94 1012.6
20260510102415 42 239 0.0 0.0 0.00 0.00 0.00 94 1012.6
20260510102322 42 239 0.0 0.0 0.00 0.00 0.00 94 1012.6
20260510102212 42 239 0.0 0.0 0.00 0.00 0.00 94 1012.6
20260510102125 42 239 0.0 0.0 0.00 0.00 0.00 94 1012.6
20260510102012 42 239 0.0 0.0 0.00 0.00 0.00 94 1012.6
20260510101918 42 239 0.0 0.0 0.00 0.00 0.00 94 1012.6
20260510101825 42 239 0.0 0.0 0.00 0.00 0.00 94 1012.6
20260510101738 42 239 0.0 0.0 0.00 0.00 0.00 94 1012.6
20260510101628 42 239 0.0 0.0 0.00 0.00 0.00 94 1012.6
20260510101557 41 239 0.0 0.0 0.00 0.00 0.00 94 1012.4
20260510101534 42 239 0.0 0.0 0.00 0.00 0.00 94 1012.5
20260510101426 42 239 0.0 0.0 0.00 0.00 0.00 94 1012.5
20260510101332 42 239 0.0 0.0 0.00 0.00 0.00 94 1012.5
20260510101218 42 239 0.0 0.0 0.00 0.00 0.00 94 1012.4
20260510101124 42 239 0.0 0.0 0.00 0.00 0.00 94 1012.4
20260510101015 42 239 0.0 0.0 0.00 0.00 0.00 94 1012.4
20260510100922 42 239 0.0 0.0 0.00 0.00 0.00 94 1012.4
20260510100809 42 239 0.0 0.0 0.00 0.00 0.00 94 1012.4
20260510100722 42 239 0.0 0.0 0.00 0.00 0.00 94 1012.4
20260510100624 42 239 0.0 0.0 0.00 0.00 0.00 94 1012.3
20260510100515 42 239 0.0 0.0 0.00 0.00 0.00 94 1012.3
20260510100449 42 239 0.0 0.0 0.00 0.00 0.00 94 1012.3
20260510100333 42 239 0.0 0.0 0.00 0.00 0.00 94 1012.3
20260510100219 42 239 0.0 0.0 0.00 0.00 0.00 94 1012.2
20260510100125 42 239 0.0 0.0 0.00 0.00 0.00 94 1012.2
20260510100052 42 239 0.0 0.0 0.00 0.00 0.00 94 1012.0
20260510100011 42 239 0.0 0.0 0.00 0.00 0.00 94 1012.1
20260510095921 42 239 0.0 0.0 0.00 0.00 0.00 94 1012.1
20260510095834 42 239 0.0 0.0 0.00 0.00 0.00 94 1012.2
20260510095720 42 239 0.0 0.0 0.00 0.00 0.00 94 1012.1
20260510095626 42 239 0.0 0.0 0.00 0.00 0.00 94 1012.1
20260510095513 42 239 0.0 0.0 0.00 0.00 0.00 94 1012.1
20260510095423 42 239 0.0 0.0 0.00 0.00 0.00 94 1012.1
20260510095309 42 239 0.0 0.0 0.00 0.00 0.00 94 1012.1
20260510095215 42 239 0.0 0.0 0.00 0.00 0.00 94 1012.1
20260510095129 42 239 0.0 0.0 0.00 0.00 0.00 94 1012.0
20260510095016 42 239 0.0 0.0 0.00 0.00 0.00 94 1012.0
20260510094921 42 239 0.0 0.0 0.00 0.00 0.00 94 1012.0
20260510094812 42 239 0.0 0.0 0.00 0.00 0.00 94 1011.9
20260510094717 42 239 0.0 0.0 0.00 0.00 0.00 94 1011.9
20260510094624 42 239 0.0 0.0 0.00 0.00 0.00 94 1011.9
20260510094527 42 239 0.0 0.0 0.00 0.00 0.00 94 1011.7
20260510094510 42 239 0.0 0.0 0.00 0.00 0.00 94 1011.9
20260510094422 42 239 0.0 0.0 0.00 0.00 0.00 94 1011.9
20260510094334 42 239 0.0 0.0 0.00 0.00 0.00 94 1011.9
20260510094218 42 239 0.0 0.0 0.00 0.00 0.00 94 1011.9
20260510094131 42 239 0.0 0.0 0.00 0.00 0.00 94 1011.9
20260510094017 42 239 0.0 0.0 0.00 0.00 0.00 94 1011.9
20260510093924 42 239 0.0 0.0 0.00 0.00 0.00 94 1011.9
20260510093811 42 239 0.0 0.0 0.00 0.00 0.00 94 1011.9
20260510093721 42 239 0.0 0.0 0.00 0.00 0.00 94 1011.9
20260510093634 42 239 0.0 0.0 0.00 0.00 0.00 94 1011.9
20260510093520 42 239 0.0 0.0 0.00 0.00 0.00 94 1011.9
20260510093426 42 239 0.0 0.0 0.00 0.00 0.00 94 1011.9
20260510093313 42 239 0.0 0.0 0.00 0.00 0.00 94 1011.9
20260510093246 42 239 0.0 0.0 0.00 0.00 0.00 94 1011.9
20260510093115 42 239 0.0 0.0 0.00 0.00 0.00 94 1011.9
20260510093059 42 239 0.0 0.0 0.00 0.00 0.00 94 1011.7
20260510093018 42 239 0.0 0.0 0.00 0.00 0.00 94 1011.9
20260510092924 42 239 0.0 0.0 0.00 0.00 0.00 94 1011.9
20260510092811 42 239 0.0 0.0 0.00 0.00 0.00 94 1011.9
20260510092744 42 239 0.0 0.0 0.00 0.00 0.00 94 1011.9
20260510092609 42 239 0.0 0.0 0.00 0.00 0.00 94 1011.9
20260510092520 42 239 0.0 0.0 0.00 0.00 0.00 94 1011.9
20260510092433 42 239 0.0 0.0 0.00 0.00 0.00 94 1011.9
20260510092316 42 239 0.0 0.0 0.00 0.00 0.00 94 1011.9
20260510092222 42 239 0.0 0.0 0.00 0.00 0.00 94 1011.9
20260510092117 43 239 0.0 0.0 0.00 0.00 0.00 94 1011.9
20260510092023 43 239 0.0 0.0 0.00 0.00 0.00 94 1011.9
20260510091914 43 239 0.0 0.0 0.00 0.00 0.00 94 1011.9
20260510091827 43 239 0.0 0.0 0.00 0.00 0.00 94 1011.9
20260510091714 43 239 0.0 0.0 0.00 0.00 0.00 94 1011.9
20260510091640 43 239 0.0 0.0 0.00 0.00 0.00 94 1011.9
20260510091532 43 239 0.0 0.0 0.00 0.00 0.00 94 1011.9
20260510091518 42 239 0.0 0.0 0.00 0.00 0.00 94 1011.7
20260510091438 43 239 0.0 0.0 0.00 0.00 0.00 94 1011.9
20260510091326 43 239 0.0 0.0 0.00 0.00 0.00 94 1011.9
20260510091213 43 239 0.0 0.0 0.00 0.00 0.00 94 1011.9
20260510091127 43 239 0.0 0.0 0.00 0.00 0.00 94 1011.9
20260510091033 43 239 0.0 0.0 0.00 0.00 0.00 94 1011.9
20260510090919 43 239 0.0 0.0 0.00 0.00 0.00 94 1011.9
20260510090826 43 239 0.0 0.0 0.00 0.00 0.00 94 1011.9
20260510090716 43 239 0.0 0.0 0.00 0.00 0.00 94 1011.9
20260510090629 43 239 0.0 0.0 0.00 0.00 0.00 94 1011.9
20260510090515 43 239 0.0 0.0 0.00 0.00 0.00 94 1011.8
20260510090422 43 239 0.0 0.0 0.00 0.00 0.00 94 1011.9
20260510090328 43 239 0.0 0.0 0.00 0.00 0.00 94 1011.9
20260510090219 43 239 0.0 0.0 0.00 0.00 0.00 94 1011.8
20260510090124 43 239 0.0 0.0 0.00 0.00 0.00 94 1011.8
20260510090039 42 239 0.0 0.0 0.00 0.00 0.00 94 1011.7
20260510090010 43 239 0.0 0.0 0.00 0.00 0.00 94 1011.9
20260510085923 43 239 0.0 0.0 0.00 0.00 0.00 94 1011.9
20260510085809 43 239 0.0 0.0 0.00 0.00 0.00 94 1011.9
20260510085716 43 239 0.0 0.0 0.00 0.00 0.00 94 1011.9
20260510085626 43 239 0.0 0.0 0.00 0.00 0.00 94 1012.0
20260510085512 43 239 0.0 0.0 0.00 0.00 0.00 94 1011.9
20260510085445 43 239 0.0 0.0 0.00 0.00 0.00 94 1011.9
20260510085310 43 239 0.0 0.0 0.00 0.00 0.00 94 1011.9
20260510085217 43 239 0.0 0.0 0.00 0.00 0.00 94 1011.9
20260510085124 43 239 0.0 0.0 0.00 0.00 0.00 94 1011.9
20260510085015 43 239 0.0 0.0 0.00 0.00 0.00 94 1011.9
20260510084928 43 239 0.0 0.0 0.00 0.00 0.00 94 1011.9
20260510084814 43 239 0.0 0.0 0.00 0.00 0.00 94 1011.8
20260510084721 43 239 0.0 0.0 0.00 0.00 0.00 94 1011.9
20260510084627 43 239 0.0 0.0 0.00 0.00 0.00 94 1011.9
20260510084544 43 239 0.0 0.0 0.00 0.00 0.00 94 1011.8
20260510084521 42 239 0.0 0.0 0.00 0.00 0.00 94 1011.6
20260510084429 43 239 0.0 0.0 0.00 0.00 0.00 94 1011.9
20260510084315 43 239 0.0 0.0 0.00 0.00 0.00 94 1011.9
20260510084241 43 239 0.0 0.0 0.00 0.00 0.00 94 1011.9
20260510084133 43 239 0.0 0.0 0.00 0.00 0.00 94 1011.8
20260510084019 43 239 0.0 0.0 0.00 0.00 0.00 94 1011.8
20260510083910 43 239 0.0 0.0 0.00 0.00 0.00 94 1011.8
20260510083837 43 239 0.0 0.0 0.00 0.00 0.00 94 1011.8
20260510083729 43 239 0.0 0.0 0.00 0.00 0.00 94 1011.8
20260510083616 43 239 0.0 0.0 0.00 0.00 0.00 94 1011.8
20260510083541 43 239 0.0 0.0 0.00 0.00 0.00 94 1011.8
20260510083427 43 239 0.0 0.0 0.00 0.00 0.00 94 1011.8
20260510083317 43 239 0.0 0.0 0.00 0.00 0.00 94 1011.7
20260510083230 43 239 0.0 0.0 0.00 0.00 0.00 94 1011.8
20260510083116 43 239 0.0 0.0 0.00 0.00 0.00 94 1011.8
20260510083111 42 239 0.0 0.0 0.00 0.00 0.00 94 1011.5
20260510083021 43 239 0.0 0.0 0.00 0.00 0.00 94 1011.7
20260510082934 43 239 0.0 0.0 0.00 0.00 0.00 94 1011.7
20260510082841 43 239 0.0 0.0 0.00 0.00 0.00 94 1011.7
20260510082710 43 239 0.0 0.0 0.00 0.00 0.00 93 1011.7
20260510082617 43 239 0.0 0.0 0.00 0.00 0.00 93 1011.7
20260510082523 43 239 0.0 0.0 0.00 0.00 0.00 93 1011.7
20260510082436 43 239 0.0 0.0 0.00 0.00 0.00 93 1011.7
20260510082337 43 239 0.0 0.0 0.00 0.00 0.00 93 1011.6
20260510082224 43 239 0.0 0.0 0.00 0.00 0.00 93 1011.6
20260510082115 43 239 0.0 0.0 0.00 0.00 0.00 93 1011.7
20260510082028 43 239 0.0 0.0 0.00 0.00 0.00 93 1011.6
20260510081914 43 239 0.0 0.0 0.00 0.00 0.00 93 1011.6
20260510081820 43 239 0.0 0.0 0.00 0.00 0.00 93 1011.6
20260510081753 43 239 0.0 0.0 0.00 0.00 0.00 93 1011.6
20260510081638 43 239 0.0 0.0 0.00 0.00 0.00 93 1011.6
20260510081608 43 239 0.0 0.0 0.00 0.00 0.00 93 1011.3
20260510081523 43 239 0.0 0.0 0.00 0.00 0.00 93 1011.6
20260510081413 43 239 0.0 0.0 0.00 0.00 0.00 93 1011.6
20260510081320 43 239 0.0 0.0 0.00 0.00 0.00 93 1011.5
20260510081233 43 239 0.0 0.0 0.00 0.00 0.00 93 1011.6
20260510081119 43 239 0.0 0.0 0.00 0.00 0.00 93 1011.6
20260510081026 43 239 0.0 0.0 0.00 0.00 0.00 93 1011.6
20260510080916 43 239 0.0 0.0 0.00 0.00 0.00 93 1011.5
20260510080849 43 239 0.0 0.0 0.00 0.00 0.00 93 1011.6
20260510080716 43 239 0.0 0.0 0.00 0.00 0.00 93 1011.5
20260510080621 43 239 0.0 0.0 0.00 0.00 0.00 93 1011.6
20260510080528 43 239 0.0 0.0 0.00 0.00 0.00 93 1011.5
20260510080434 43 239 0.0 0.0 0.00 0.00 0.00 93 1011.5
20260510080330 43 239 0.0 0.0 0.00 0.00 0.00 93 1011.5
20260510080217 43 239 0.0 0.0 0.00 0.00 0.00 93 1011.5
20260510080123 43 239 0.0 0.0 0.00 0.00 0.00 93 1011.5
20260510080054 43 239 0.0 0.0 0.00 0.00 0.00 93 1011.3
20260510080009 43 239 0.0 0.0 0.00 0.00 0.00 93 1011.5
20260510075942 44 239 0.0 0.0 0.00 0.00 0.00 93 1011.5
20260510075847 43 239 0.0 0.0 0.00 0.00 0.00 93 1011.5
20260510075740 44 239 0.0 0.0 0.00 0.00 0.00 93 1011.4
20260510075648 44 239 0.0 0.0 0.00 0.00 0.00 93 1011.5
20260510075514 44 239 0.0 0.0 0.00 0.00 0.00 93 1011.4
20260510075420 44 239 0.0 0.0 0.00 0.00 0.00 93 1011.4
20260510075333 44 239 0.0 0.0 0.00 0.00 0.00 93 1011.4
20260510075220 44 239 0.0 0.0 0.00 0.00 0.00 93 1011.5
20260510075146 44 239 0.0 0.0 0.00 0.00 0.00 93 1011.4
20260510075042 44 239 0.0 0.0 0.00 0.00 0.00 93 1011.4
20260510074927 44 239 0.0 0.0 0.00 0.00 0.00 93 1011.4
20260510074814 44 239 0.0 0.0 0.00 0.00 0.00 93 1011.5
20260510074720 44 239 0.0 0.0 0.00 0.00 0.00 93 1011.4
20260510074634 44 239 0.0 0.0 0.00 0.00 0.00 93 1011.4
20260510074524 43 239 0.0 0.0 0.00 0.00 0.00 93 1011.2
20260510074511 44 239 0.0 0.0 0.00 0.00 0.00 93 1011.4
20260510074448 44 239 0.0 0.0 0.00 0.00 0.00 93 1011.4
20260510074314 44 239 0.0 0.0 0.00 0.00 0.00 93 1011.4
20260510074219 44 239 0.0 0.0 0.00 0.00 0.00 93 1011.4
20260510074132 44 239 0.0 0.0 0.00 0.00 0.00 93 1011.4
20260510074018 44 239 0.0 0.0 0.00 0.00 0.00 93 1011.4
20260510073920 44 239 0.0 0.0 0.00 0.00 0.00 93 1011.4
20260510073810 44 239 0.0 0.0 0.00 0.00 0.00 93 1011.3
20260510073717 44 239 0.0 0.0 0.00 0.00 0.00 93 1011.3
20260510073623 44 239 0.0 0.0 0.00 0.00 0.00 93 1011.3
20260510073537 44 239 0.0 0.0 0.00 0.00 0.00 93 1011.3
20260510073419 44 239 0.0 0.0 0.00 0.00 0.00 93 1011.4
20260510073310 44 239 0.0 0.0 0.00 0.00 0.00 93 1011.4
20260510073217 44 239 0.0 0.0 0.00 0.00 0.00 93 1011.4
20260510073122 44 239 0.0 0.0 0.00 0.00 0.00 93 1011.4
20260510073035 44 239 0.0 0.0 0.00 0.00 0.00 93 1011.4
20260510073025 44 239 0.0 0.0 0.00 0.00 0.00 93 1011.2
20260510072914 44 239 0.0 0.0 0.00 0.00 0.00 93 1011.4
20260510072812 44 239 0.0 0.0 0.00 0.00 0.00 93 1011.3
20260510072718 44 239 0.0 0.0 0.00 0.00 0.00 93 1011.3
20260510072624 44 239 0.0 0.0 0.00 0.00 0.00 93 1011.3
20260510072510 45 239 0.0 0.0 0.00 0.00 0.00 93 1011.3
20260510072417 45 239 0.0 0.0 0.00 0.00 0.00 93 1011.3
20260510072331 44 239 0.0 0.0 0.00 0.00 0.00 93 1011.3
20260510072220 44 239 0.0 0.0 0.00 0.00 0.00 94 1011.3
20260510072127 45 239 0.0 0.0 0.00 0.00 0.00 94 1011.2
20260510072013 45 239 0.0 0.0 0.00 0.00 0.00 94 1011.2
20260510071921 45 239 0.0 0.0 0.00 0.00 0.00 94 1011.2
20260510071826 45 239 0.0 0.0 0.00 0.00 0.00 94 1011.2
20260510071717 45 239 0.0 0.0 0.00 0.00 0.00 93 1011.2
20260510071630 44 239 0.0 0.0 0.00 0.00 0.00 93 1011.2
20260510071613 44 239 0.0 0.0 0.00 0.00 0.00 93 1011.0
20260510071536 44 239 0.0 0.0 0.00 0.00 0.00 93 1011.1
20260510071422 44 239 0.0 0.0 0.00 0.00 0.00 93 1011.1
20260510071335 44 239 0.0 0.0 0.00 0.00 0.00 93 1011.2
20260510071220 45 239 0.0 0.0 0.00 0.00 0.00 93 1011.2
20260510071111 45 239 0.0 0.0 0.00 0.00 0.00 93 1011.1
20260510071017 45 239 0.0 0.0 0.00 0.00 0.00 93 1011.1
20260510070924 45 239 0.0 0.0 0.00 0.00 0.00 93 1011.2
20260510070810 45 239 0.0 0.0 0.00 0.00 0.00 93 1011.1
20260510070723 45 239 0.0 0.0 0.00 0.00 0.00 93 1011.1
20260510070609 45 239 0.0 0.0 0.00 0.00 0.00 93 1011.0
20260510070519 45 239 0.0 0.0 0.00 0.00 0.00 93 1011.0
20260510070426 45 239 0.0 0.0 0.00 0.00 0.00 93 1011.0
20260510070312 45 239 0.0 0.0 0.00 0.00 0.00 93 1011.0
20260510070219 45 239 0.0 0.0 0.00 0.00 0.00 93 1011.0
20260510070132 45 239 0.0 0.0 0.00 0.00 0.00 93 1011.1
20260510070022 45 239 0.0 0.0 0.00 0.00 0.00 93 1011.1
20260510070003 45 239 0.0 0.0 0.00 0.00 0.00 93 1010.9
20260510065928 45 239 0.0 0.0 0.00 0.00 0.00 93 1011.1
20260510065814 45 239 0.0 0.0 0.00 0.00 0.00 93 1011.1
20260510065721 45 239 0.0 0.0 0.00 0.00 0.00 93 1011.1
20260510065634 45 239 0.0 0.0 0.00 0.00 0.00 93 1011.2
20260510065540 45 239 0.0 0.0 0.00 0.00 0.00 93 1011.2
20260510065430 45 239 0.0 0.0 0.00 0.00 0.00 93 1011.1
20260510065323 45 239 0.0 0.0 0.00 0.00 0.00 93 1011.1
20260510065248 45 239 0.0 0.0 0.00 0.00 0.00 93 1011.2
20260510065112 45 239 0.0 0.0 0.00 0.00 0.00 93 1011.1
20260510065019 45 239 0.0 0.0 0.00 0.00 0.00 93 1011.1
20260510064932 45 239 0.0 0.0 0.00 0.00 0.00 93 1011.0
20260510064818 45 239 0.0 0.0 0.00 0.00 0.00 93 1011.0
20260510064755 45 239 0.0 0.0 0.00 0.00 0.00 93 1011.0
20260510064640 45 239 0.0 0.0 0.00 0.00 0.00 93 1011.1
20260510064559 45 239 0.0 0.0 0.00 0.00 0.00 93 1010.8
20260510064524 45 239 0.0 0.0 0.00 0.00 0.00 93 1011.0
20260510064412 45 239 0.0 0.0 0.00 0.00 0.00 93 1011.0
20260510064325 45 239 0.0 0.0 0.00 0.00 0.00 93 1011.0
20260510064230 45 239 0.0 0.0 0.00 0.00 0.00 93 1011.1
20260510064120 45 239 0.0 0.0 0.00 0.00 0.00 93 1011.0
20260510064027 45 239 0.0 0.0 0.00 0.00 0.00 93 1011.0
20260510063933 45 239 0.0 0.0 0.00 0.00 0.00 93 1011.0
20260510063825 45 239 0.0 0.0 0.00 0.00 0.00 93 1011.0
20260510063712 45 239 0.0 0.0 0.00 0.00 0.00 93 1010.9
20260510063619 45 239 0.0 0.0 0.00 0.00 0.00 93 1010.9
20260510063510 45 239 0.0 0.0 0.00 0.00 0.00 93 1010.9
20260510063416 45 239 0.0 0.0 0.00 0.00 0.00 93 1010.9
20260510063323 45 239 0.0 0.0 0.00 0.00 0.00 93 1010.9
20260510063209 45 239 0.0 0.0 0.00 0.00 0.00 93 1010.8
20260510063122 45 239 0.0 0.0 0.00 0.00 0.00 93 1010.8
20260510063105 45 239 0.0 0.0 0.00 0.00 0.00 93 1010.6
20260510063013 45 239 0.0 0.0 0.00 0.00 0.00 93 1010.8
20260510062938 45 239 0.0 0.0 0.00 0.00 0.00 93 1010.8
20260510062830 45 239 0.0 0.0 0.00 0.00 0.00 93 1010.8
20260510062716 45 239 0.0 0.0 0.00 0.00 0.00 93 1010.8
20260510062622 45 239 0.0 0.0 0.00 0.00 0.00 93 1010.8
20260510062509 46 239 0.0 0.0 0.00 0.00 0.00 93 1010.8
20260510062419 46 239 0.0 0.0 0.00 0.00 0.00 93 1010.8
20260510062325 46 239 0.0 0.0 0.00 0.00 0.00 93 1010.8
20260510062238 46 239 0.0 0.0 0.00 0.00 0.00 93 1010.8
20260510062123 46 239 0.0 0.0 0.00 0.00 0.00 93 1010.9
20260510062010 46 239 0.0 0.0 0.00 0.00 0.00 93 1010.8
20260510061943 46 239 0.0 0.0 0.00 0.00 0.00 93 1010.8
20260510061833 46 239 0.0 0.0 0.00 0.00 0.00 92 1010.8
20260510061717 46 239 0.0 0.0 0.00 0.00 0.00 93 1010.8
20260510061630 46 239 0.0 0.0 0.00 0.00 0.00 92 1010.8
20260510061603 45 239 0.0 0.0 0.00 0.00 0.00 92 1010.5
20260510061515 46 239 0.0 0.0 0.00 0.00 0.00 93 1010.8
20260510061421 46 239 0.0 0.0 0.00 0.00 0.00 93 1010.7
20260510061354 46 239 0.0 0.0 0.00 0.00 0.00 93 1010.7
20260510061219 46 239 0.0 0.0 0.00 0.00 0.00 93 1010.7
20260510061110 46 239 0.0 0.0 0.00 0.00 0.00 93 1010.7
20260510061016 46 239 0.0 0.0 0.00 0.00 0.00 93 1010.7
20260510060923 46 239 0.0 0.0 0.00 0.00 0.00 93 1010.7
20260510060810 46 239 0.0 0.0 0.00 0.00 0.00 93 1010.6
20260510060724 46 239 0.0 0.0 0.00 0.00 0.00 93 1010.6
20260510060614 46 239 0.0 0.0 0.00 0.00 0.00 93 1010.7
20260510060540 46 239 0.0 0.0 0.00 0.00 0.00 93 1010.6
20260510060426 46 239 0.0 0.0 0.00 0.00 0.00 93 1010.7
20260510060339 46 239 0.0 0.0 0.00 0.00 0.00 93 1010.6
20260510060220 46 239 0.0 0.0 0.00 0.00 0.00 93 1010.6
20260510060115 46 239 0.0 0.0 0.00 0.00 0.00 93 1010.6
20260510060042 46 239 0.0 0.0 0.00 0.00 0.00 93 1010.4
20260510060023 46 239 0.0 0.0 0.00 0.00 0.00 93 1010.6
20260510055910 46 239 0.0 0.0 0.00 0.00 0.00 93 1010.7
20260510055822 46 239 0.0 0.0 0.00 0.00 0.00 93 1010.7
20260510055729 46 239 0.0 0.0 0.00 0.00 0.00 93 1010.6
20260510055635 46 239 0.0 0.0 0.00 0.00 0.00 93 1010.6
20260510055510 46 239 0.0 0.0 0.00 0.00 0.00 93 1010.6
20260510055427 46 239 0.0 0.0 0.00 0.00 0.00 92 1010.6
20260510055313 46 239 0.0 0.0 0.00 0.00 0.00 93 1010.5
20260510055219 46 239 0.0 0.0 0.00 0.00 0.00 92 1010.5
20260510055125 46 239 0.0 0.0 0.00 0.00 0.00 93 1010.6
20260510055039 46 239 0.0 0.0 0.00 0.00 0.00 92 1010.5
20260510054923 46 239 0.0 0.0 0.00 0.00 0.00 92 1010.5
20260510054813 46 239 0.0 0.0 0.00 0.00 0.00 92 1010.5
20260510054719 46 239 0.0 0.0 0.00 0.00 0.00 92 1010.5
20260510054633 46 239 0.0 0.0 0.00 0.00 0.00 92 1010.5
20260510054626 46 239 0.0 0.0 0.00 0.00 0.00 92 1010.3
20260510054538 46 239 0.0 0.0 0.00 0.00 0.00 92 1010.6
20260510054443 46 239 0.0 0.0 0.00 0.00 0.00 92 1010.5
20260510054335 46 239 0.0 0.0 0.00 0.00 0.00 92 1010.6
20260510054221 46 239 0.0 0.0 0.00 0.00 0.00 92 1010.6
20260510054112 46 239 0.0 0.0 0.00 0.00 0.00 92 1010.6
20260510054019 47 239 0.0 0.0 0.00 0.00 0.00 92 1010.6
20260510053932 47 239 0.0 0.0 0.00 0.00 0.00 92 1010.6
20260510053818 47 239 0.0 0.0 0.00 0.00 0.00 92 1010.6
20260510053725 47 239 0.0 0.0 0.00 0.00 0.00 92 1010.6
20260510053614 47 239 0.0 0.0 0.00 0.00 0.00 92 1010.6
20260510053520 47 239 0.0 0.0 0.00 0.00 0.00 92 1010.7
20260510053433 47 239 0.0 0.0 0.00 0.00 0.00 92 1010.6
20260510053319 47 239 0.0 0.0 0.00 0.00 0.00 92 1010.7
20260510053225 47 239 0.0 0.0 0.00 0.00 0.00 92 1010.7
20260510053111 47 239 0.0 0.0 0.00 0.00 0.00 92 1010.8
20260510053047 47 239 0.0 0.0 0.00 0.00 0.00 92 1010.8
20260510053011 46 239 0.0 0.0 0.00 0.00 0.00 92 1010.5
20260510052912 47 239 0.0 0.0 0.00 0.00 0.00 92 1010.8
20260510052818 47 239 0.0 0.0 0.00 0.00 0.00 92 1010.8
20260510052725 47 239 0.0 0.0 0.00 0.00 0.00 92 1010.7
20260510052611 47 239 0.0 0.0 0.00 0.00 0.00 92 1010.8
20260510052545 47 239 0.0 0.0 0.00 0.00 0.00 92 1010.8
20260510052414 47 239 0.0 0.0 0.00 0.00 0.00 92 1010.8
20260510052320 47 239 0.0 0.0 0.00 0.00 0.00 92 1010.8
20260510052253 47 239 0.0 0.0 0.00 0.00 0.00 92 1010.8
20260510052119 47 239 0.0 0.0 0.00 0.00 0.00 92 1010.8
20260510052025 47 239 0.0 0.0 0.00 0.00 0.00 92 1010.8
20260510051912 47 239 0.0 0.0 0.00 0.00 0.00 92 1010.8
20260510051822 47 239 0.0 0.0 0.00 0.00 0.00 92 1010.8
20260510051709 47 239 0.0 0.0 0.00 0.00 0.00 92 1010.8
20260510051615 47 239 0.0 0.0 0.00 0.00 0.00 92 1010.8
20260510051528 47 239 0.0 0.0 0.00 0.00 0.00 92 1010.8
20260510051510 47 239 0.0 0.0 0.00 0.00 0.00 92 1010.6
20260510051414 47 239 0.0 0.0 0.00 0.00 0.00 92 1010.8
20260510051324 48 239 0.0 0.0 0.00 0.00 0.00 92 1010.8
20260510051211 48 239 0.0 0.0 0.00 0.00 0.00 92 1010.8
20260510051117 48 239 0.0 0.0 0.00 0.00 0.00 92 1010.8
20260510051031 48 239 0.0 0.0 0.00 0.00 0.00 92 1010.8
20260510050910 48 239 0.0 0.0 0.00 0.00 0.00 92 1010.8
20260510050843 48 239 0.0 0.0 0.00 0.00 0.00 92 1010.8
20260510050713 48 239 0.0 0.0 0.00 0.00 0.00 92 1010.8
20260510050618 48 239 0.0 0.0 0.00 0.00 0.00 92 1010.8
20260510050531 48 239 0.0 0.0 0.00 0.00 0.00 92 1010.8
20260510050417 48 239 0.0 0.0 0.00 0.00 0.00 92 1010.8
20260510050325 48 239 0.0 0.0 0.00 0.00 0.00 92 1010.8
20260510050214 48 239 0.0 0.0 0.00 0.00 0.00 92 1010.8
20260510050122 48 239 0.0 0.0 0.00 0.00 0.00 92 1010.8
20260510050038 47 239 0.0 0.0 0.00 0.00 0.00 92 1010.6
20260510050027 48 239 0.0 0.0 0.00 0.00 0.00 92 1010.8
20260510045913 48 239 0.0 0.0 0.00 0.00 0.00 92 1010.8
20260510045846 48 239 0.0 0.0 0.00 0.00 0.00 92 1010.8
20260510045711 48 239 0.0 0.0 0.00 0.00 0.00 92 1010.8
20260510045621 48 239 0.0 0.0 0.00 0.00 0.00 92 1010.8
20260510045535 48 239 0.0 0.0 0.00 0.00 0.00 92 1010.8
20260510045422 48 239 0.0 0.0 0.00 0.00 0.00 92 1010.9
20260510045347 48 239 0.0 0.0 0.00 0.00 0.00 92 1010.9
20260510045213 48 239 0.0 0.0 0.00 0.00 0.00 92 1010.9
20260510045119 48 239 0.0 0.0 0.00 0.00 0.00 92 1010.8
20260510045037 48 239 0.0 0.0 0.00 0.00 0.00 92 1010.8
20260510044922 48 239 0.0 0.0 0.00 0.00 0.00 92 1010.8
20260510044855 48 239 0.0 0.0 0.00 0.00 0.00 92 1010.8
20260510044720 48 239 0.0 0.0 0.00 0.00 0.00 92 1010.8
20260510044628 48 239 0.0 0.0 0.00 0.00 0.00 92 1010.6
20260510044513 48 239 0.0 0.0 0.00 0.00 0.00 92 1010.8
20260510044424 48 239 0.0 0.0 0.00 0.00 0.00 92 1010.8
20260510044310 48 239 0.0 0.0 0.00 0.00 0.00 91 1010.9
20260510044224 48 239 0.0 0.0 0.00 0.00 0.00 91 1010.9
20260510044129 49 239 0.0 0.0 0.00 0.00 0.00 91 1010.9
20260510044015 49 239 0.0 0.0 0.00 0.00 0.00 91 1010.9
20260510043922 49 239 0.0 0.0 0.00 0.00 0.00 92 1010.9
20260510043812 49 239 0.0 0.0 0.00 0.00 0.00 92 1010.9
20260510043719 49 239 0.0 0.0 0.00 0.00 0.00 92 1010.9
20260510043632 49 239 0.0 0.0 0.00 0.00 0.00 92 1010.9
20260510043519 49 239 0.0 0.0 0.00 0.00 0.00 92 1010.9
20260510043445 49 239 0.0 0.0 0.00 0.00 0.00 92 1010.9
20260510043314 49 239 0.0 0.0 0.00 0.00 0.00 92 1010.9
20260510043221 49 239 0.0 0.0 0.00 0.00 0.00 92 1010.9
20260510043134 49 239 0.0 0.0 0.00 0.00 0.00 92 1010.9
20260510043020 49 239 0.0 0.0 0.00 0.00 0.00 92 1011.0
20260510043003 49 239 0.0 0.0 0.00 0.00 0.00 92 1010.7
20260510042926 49 239 0.0 0.0 0.00 0.00 0.00 92 1010.9
20260510042812 49 239 0.0 0.0 0.00 0.00 0.00 92 1010.9
20260510042721 49 239 0.0 0.0 0.00 0.00 0.00 92 1010.9
20260510042634 49 239 0.0 0.0 0.00 0.00 0.00 91 1010.9
20260510042521 49 239 0.0 0.0 0.00 0.00 0.00 91 1010.9
20260510042427 49 239 0.0 0.0 0.00 0.00 0.00 91 1010.9
20260510042313 49 239 0.0 0.0 0.00 0.00 0.00 91 1010.8
20260510042224 49 239 0.0 0.0 0.00 0.00 0.00 91 1010.8
20260510042110 49 239 0.0 0.0 0.00 0.00 0.00 91 1010.8
20260510042017 49 239 0.0 0.0 0.00 0.00 0.00 91 1010.8
20260510041929 49 239 0.0 0.0 0.00 0.00 0.00 92 1010.8
20260510041836 50 239 0.0 0.0 0.00 0.00 0.00 92 1010.9
20260510041748 50 239 0.0 0.0 0.00 0.00 0.00 92 1010.8
20260510041633 50 239 0.0 0.0 0.00 0.00 0.00 92 1010.9
20260510041548 49 239 0.0 0.0 0.00 0.00 0.00 92 1010.6
20260510041521 50 239 0.0 0.0 0.00 0.00 0.00 92 1010.9
20260510041436 50 239 0.0 0.0 0.00 0.00 0.00 92 1010.8
20260510041339 50 239 0.0 0.0 0.00 0.00 0.00 92 1010.8
20260510041252 50 239 0.0 0.0 0.00 0.00 0.00 92 1010.8
20260510041116 50 239 0.0 0.0 0.00 0.00 0.00 92 1010.8
20260510041022 50 239 0.0 0.0 0.00 0.00 0.00 92 1010.8
20260510040913 50 239 0.0 0.0 0.00 0.00 0.00 92 1010.8
20260510040820 50 239 0.0 0.0 0.00 0.00 0.00 92 1010.8
20260510040733 50 239 0.0 0.0 0.00 0.00 0.00 92 1010.8
20260510040621 50 239 0.0 0.0 0.00 0.00 0.00 91 1010.8
20260510040527 50 239 0.0 0.0 0.00 0.00 0.00 91 1010.8
20260510040412 50 239 0.0 0.0 0.00 0.00 0.00 91 1010.8
20260510040322 50 239 0.0 0.0 0.00 0.00 0.00 91 1010.8
20260510040209 50 239 0.0 0.0 0.00 0.00 0.00 91 1010.8
20260510040142 50 239 0.0 0.0 0.00 0.00 0.00 91 1010.8
20260510040112 50 239 0.0 0.0 0.00 0.00 0.00 91 1010.5
20260510040027 50 239 0.0 0.0 0.00 0.00 0.00 91 1010.7
20260510035914 50 239 0.0 0.0 0.00 0.00 0.00 91 1010.8
20260510035820 50 239 0.0 0.0 0.00 0.00 0.00 91 1010.8
20260510035737 50 239 0.0 0.0 0.00 0.00 0.00 91 1010.8
20260510035622 50 239 0.0 0.0 0.00 0.00 0.00 91 1010.8
20260510035528 50 239 0.0 0.0 0.00 0.00 0.00 91 1010.8
20260510035436 50 239 0.0 0.0 0.00 0.00 0.00 91 1010.8
20260510035328 50 239 0.0 0.0 0.00 0.00 0.00 91 1010.9
20260510035214 50 239 0.0 0.0 0.00 0.00 0.00 91 1010.9
20260510035124 50 239 0.0 0.0 0.00 0.00 0.00 91 1010.9
20260510035010 50 239 0.0 0.0 0.00 0.00 0.00 91 1010.9
20260510034943 51 239 0.0 0.0 0.00 0.00 0.00 91 1010.9
20260510034826 51 239 0.0 0.0 0.00 0.00 0.00 91 1010.9
20260510034738 51 239 0.0 0.0 0.00 0.00 0.00 91 1010.9
20260510034614 51 239 0.0 0.0 0.00 0.00 0.00 91 1010.8
20260510034606 50 239 0.0 0.0 0.00 0.00 0.00 91 1010.6
20260510034523 51 239 0.0 0.0 0.00 0.00 0.00 91 1010.8
20260510034409 51 239 0.0 0.0 0.00 0.00 0.00 91 1010.8
20260510034316 51 239 0.0 0.0 0.00 0.00 0.00 91 1010.8
20260510034222 51 239 0.0 0.0 0.00 0.00 0.00 91 1010.8
20260510034109 51 239 0.0 0.0 0.00 0.00 0.00 91 1010.8
20260510034022 51 239 0.0 0.0 0.00 0.00 0.00 91 1010.8
20260510033912 51 239 0.0 0.0 0.00 0.00 0.00 91 1010.8
20260510033839 51 239 0.0 0.0 0.00 0.00 0.00 91 1010.8
20260510033731 51 239 0.0 0.0 0.00 0.00 0.00 91 1010.8
20260510033612 51 239 0.0 0.0 0.00 0.00 0.00 91 1010.8
20260510033545 51 239 0.0 0.0 0.00 0.00 0.00 91 1010.8
20260510033410 51 239 0.0 0.0 0.00 0.00 0.00 91 1010.7
20260510033321 51 239 0.0 0.0 0.00 0.00 0.00 91 1010.7
20260510033234 51 239 0.0 0.0 0.00 0.00 0.00 91 1010.7
20260510033119 51 239 0.0 0.0 0.00 0.00 0.00 91 1010.8
20260510033108 51 239 0.0 0.0 0.00 0.00 0.00 91 1010.5
20260510033026 51 239 0.0 0.0 0.00 0.00 0.00 91 1010.7
20260510032909 51 239 0.0 0.0 0.00 0.00 0.00 91 1010.6
20260510032844 51 239 0.0 0.0 0.00 0.00 0.00 91 1010.6
20260510032731 51 239 0.0 0.0 0.00 0.00 0.00 90 1010.7
20260510032627 51 239 0.0 0.0 0.00 0.00 0.00 90 1010.7
20260510032511 51 239 0.0 0.0 0.00 0.00 0.00 90 1010.6
20260510032418 51 239 0.0 0.0 0.00 0.00 0.00 91 1010.6
20260510032331 51 239 0.0 0.0 0.00 0.00 0.00 90 1010.6
20260510032217 51 239 0.0 0.0 0.00 0.00 0.00 90 1010.6
20260510032128 52 239 0.0 0.0 0.00 0.00 0.00 90 1010.6
20260510032012 52 239 0.0 0.0 0.00 0.00 0.00 90 1010.6
20260510031925 52 239 0.0 0.0 0.00 0.00 0.00 90 1010.6
20260510031831 52 239 0.0 0.0 0.00 0.00 0.00 90 1010.6
20260510031719 52 239 0.0 0.0 0.00 0.00 0.00 90 1010.6
20260510031628 52 239 0.0 0.0 0.00 0.00 0.00 90 1010.6
20260510031546 51 239 0.0 0.0 0.00 0.00 0.00 90 1010.4
20260510031515 52 239 0.0 0.0 0.00 0.00 0.00 90 1010.6
20260510031420 52 239 0.0 0.0 0.00 0.00 0.00 90 1010.6
20260510031333 52 239 0.0 0.0 0.00 0.00 0.00 90 1010.6
20260510031220 52 239 0.0 0.0 0.00 0.00 0.00 90 1010.6
20260510031111 52 239 0.0 0.0 0.00 0.00 0.00 90 1010.6
20260510031018 52 239 0.0 0.0 0.00 0.00 0.00 90 1010.6
20260510030918 52 239 0.0 0.0 0.00 0.00 0.00 90 1010.6
20260510030851 52 239 0.0 0.0 0.00 0.00 0.00 90 1010.5
20260510030717 52 239 0.0 0.0 0.00 0.00 0.00 90 1010.5
20260510030624 52 239 0.0 0.0 0.00 0.00 0.00 90 1010.5
20260510030515 52 239 0.0 0.0 0.00 0.00 0.00 90 1010.4
20260510030448 52 239 0.0 0.0 0.00 0.00 0.00 90 1010.4
20260510030332 53 239 0.0 0.0 0.00 0.00 0.00 90 1010.5
20260510030218 53 239 0.0 0.0 0.00 0.00 0.00 90 1010.5
20260510030132 53 239 0.0 0.0 0.00 0.00 0.00 90 1010.4
20260510030018 53 239 0.0 0.0 0.00 0.00 0.00 90 1010.4
20260510030010 52 239 0.0 0.0 0.00 0.00 0.00 90 1010.2
20260510025943 53 239 0.0 0.0 0.00 0.00 0.00 90 1010.5
20260510025812 53 239 0.0 0.0 0.00 0.00 0.00 90 1010.4
20260510025745 53 239 0.0 0.0 0.00 0.00 0.00 90 1010.4
20260510025611 53 239 0.0 0.0 0.00 0.00 0.00 90 1010.4
20260510025518 53 239 0.0 0.0 0.00 0.00 0.00 90 1010.4
20260510025424 53 239 0.0 0.0 0.00 0.00 0.00 90 1010.3
20260510025310 53 239 0.0 0.0 0.00 0.00 0.00 90 1010.3
20260510025227 53 239 0.0 0.0 0.00 0.00 0.00 90 1010.3
20260510025123 53 239 0.0 0.0 0.00 0.00 0.00 90 1010.2
20260510025052 53 239 0.0 0.0 0.00 0.00 0.00 90 1010.2
20260510024937 53 239 0.0 0.0 0.00 0.00 0.00 90 1010.2
20260510024823 53 239 0.0 0.0 0.00 0.00 0.00 90 1010.2
20260510024709 53 239 0.0 0.0 0.00 0.00 0.00 90 1010.2
20260510024620 53 239 0.0 0.0 0.00 0.00 0.00 90 1010.2
20260510024533 53 239 0.0 0.0 0.00 0.00 0.00 90 1010.2
20260510024517 53 239 0.0 0.0 0.00 0.00 0.00 90 1010.0
20260510024419 54 239 0.0 0.0 0.00 0.00 0.00 90 1010.2
20260510024326 54 239 0.0 0.0 0.00 0.00 0.00 90 1010.2
20260510024212 54 239 0.0 0.0 0.00 0.00 0.00 90 1010.3
20260510024119 54 239 0.0 0.0 0.00 0.00 0.00 90 1010.3
20260510024036 54 239 0.0 0.0 0.00 0.00 0.00 90 1010.3
20260510023916 54 239 0.0 0.0 0.00 0.00 0.00 90 1010.3
20260510023829 54 239 0.0 0.0 0.00 0.00 0.00 90 1010.3
20260510023735 54 239 0.0 0.0 0.00 0.00 0.00 90 1010.2
20260510023621 54 239 0.0 0.0 0.00 0.00 0.00 90 1010.2
20260510023531 54 239 0.0 0.0 0.00 0.00 0.00 90 1010.2
20260510023420 54 239 0.0 0.0 0.00 0.00 0.00 90 1010.2
20260510023327 54 239 0.0 0.0 0.00 0.00 0.00 90 1010.1
20260510023213 54 239 0.0 0.0 0.00 0.00 0.00 90 1010.2
20260510023148 54 239 0.0 0.0 0.00 0.00 0.00 89 1010.2
20260510023031 54 239 0.0 0.0 0.00 0.00 0.00 89 1010.2
20260510023008 53 239 0.0 0.0 0.00 0.00 0.00 89 1009.9
20260510022921 54 239 0.0 0.0 0.00 0.00 0.00 89 1010.2
20260510022829 54 239 0.0 0.0 0.00 0.00 0.00 89 1010.2
20260510022713 54 239 0.0 0.0 0.00 0.00 0.00 89 1010.1
20260510022620 54 239 0.0 0.0 0.00 0.00 0.00 89 1010.1
20260510022534 54 239 0.0 0.0 0.00 0.00 0.00 89 1010.1
20260510022440 54 239 0.0 0.0 0.00 0.00 0.00 89 1010.1
20260510022309 54 239 0.0 0.0 0.00 0.00 0.00 89 1010.1
20260510022222 54 239 0.0 0.0 0.00 0.00 0.00 89 1010.1
20260510022148 54 239 0.0 0.0 0.00 0.00 0.00 89 1010.1
20260510022015 54 239 0.0 0.0 0.00 0.00 0.00 89 1010.1
20260510021921 55 239 0.0 0.0 0.00 0.00 0.00 88 1010.1
20260510021834 55 239 0.0 0.0 0.00 0.00 0.00 89 1010.1
20260510021725 55 239 0.0 0.0 0.00 0.00 0.00 88 1010.0
20260510021617 55 239 0.0 0.0 0.00 0.00 0.00 88 1010.0
20260510021543 54 239 0.0 0.0 0.00 0.00 0.00 88 1009.7
20260510021523 55 239 0.0 0.0 0.00 0.00 0.00 88 1010.0
20260510021436 55 239 0.0 0.0 0.00 0.00 0.00 88 1009.9
20260510021319 55 239 0.0 0.0 0.00 0.00 0.00 88 1010.0
20260510021222 55 239 0.0 0.0 0.00 0.00 0.00 88 1010.0
20260510021128 55 239 0.0 0.0 0.00 0.00 0.00 88 1010.0
20260510021015 55 239 0.0 0.0 0.00 0.00 0.00 88 1010.0
20260510020917 55 239 0.0 0.0 0.00 0.00 0.00 88 1009.9
20260510020829 55 239 0.0 0.0 0.00 0.00 0.00 88 1009.9
20260510020716 55 239 0.0 0.0 0.00 0.00 0.00 88 1009.9
20260510020622 55 239 0.0 0.0 0.00 0.00 0.00 88 1009.9
20260510020528 55 239 0.0 0.0 0.00 0.00 0.00 88 1009.9
20260510020410 56 239 0.0 0.0 0.00 0.00 0.00 88 1009.8
20260510020316 56 239 0.0 0.0 0.00 0.00 0.00 88 1009.8
20260510020229 56 239 0.0 0.0 0.00 0.00 0.00 88 1009.8
20260510020128 56 239 0.0 0.0 0.00 0.00 0.00 88 1009.8
20260510020051 56 239 0.0 0.0 0.00 0.00 0.00 88 1009.7
20260510020011 55 239 0.0 0.0 0.00 0.00 0.00 88 1009.4
20260510015920 56 239 0.0 0.0 0.00 0.00 0.00 88 1009.7
20260510015827 56 239 0.0 0.0 0.00 0.00 0.00 88 1009.6
20260510015800 56 239 0.0 0.0 0.00 0.00 0.00 88 1009.6
20260510015641 56 239 0.0 0.0 0.00 0.00 0.00 88 1009.5
20260510015527 56 239 0.0 0.0 0.00 0.00 0.00 88 1009.6
20260510015413 56 239 0.0 0.0 0.00 0.00 0.00 88 1009.5
20260510015330 56 239 0.0 0.0 0.00 0.00 0.00 88 1009.5
20260510015235 56 239 0.0 0.0 0.00 0.00 0.00 88 1009.5
20260510015119 56 239 0.0 0.0 0.00 0.00 0.00 88 1009.5
20260510015025 56 239 0.0 0.0 0.00 0.00 0.00 88 1009.5
20260510014912 56 239 0.0 0.0 0.00 0.00 0.00 88 1009.4
20260510014818 56 239 0.0 0.0 0.00 0.00 0.00 88 1009.4
20260510014735 56 239 0.0 0.0 0.00 0.00 0.00 88 1009.5
20260510014621 56 239 0.0 0.0 0.00 0.00 0.00 87 1009.4
20260510014527 57 239 0.0 0.0 0.00 0.00 0.00 87 1009.4
20260510014501 56 239 0.0 0.0 0.00 0.00 0.00 87 1009.0
20260510014414 57 239 0.0 0.0 0.00 0.00 0.00 87 1009.3
20260510014316 57 239 0.0 0.0 0.00 0.00 0.00 87 1009.4
20260510014226 57 239 0.0 0.0 0.00 0.00 0.00 87 1009.4
20260510014109 57 239 0.0 0.0 0.00 0.00 0.00 87 1009.4
20260510014023 57 239 0.0 0.0 0.00 0.00 0.00 87 1009.4
20260510013926 57 239 0.0 0.0 0.00 0.00 0.00 87 1009.4
20260510013850 57 239 0.0 0.0 0.00 0.00 0.00 87 1009.4
20260510013814 57 239 0.0 0.0 0.00 0.00 0.00 87 1009.4
20260510013637 57 239 0.0 0.0 0.00 0.00 0.00 87 1009.4
20260510013522 57 239 0.0 0.0 0.00 0.00 0.00 87 1009.3
20260510013419 57 239 0.0 0.0 0.00 0.00 0.00 86 1009.3
20260510013323 57 239 0.0 0.0 0.00 0.00 0.00 87 1009.3
20260510013229 58 239 0.0 0.0 0.00 0.00 0.00 87 1009.3
20260510013116 58 239 0.0 0.0 0.00 0.00 0.00 86 1009.2
20260510013055 57 239 0.0 0.0 0.00 0.00 0.00 86 1009.0
20260510013017 58 239 0.0 0.0 0.00 0.00 0.00 86 1009.2
20260510012922 58 239 0.0 0.0 0.00 0.00 0.00 86 1009.2
20260510012832 58 239 0.0 0.0 0.00 0.00 0.00 86 1009.1
20260510012718 58 239 0.0 0.0 0.00 0.00 0.00 86 1009.1
20260510012624 58 239 0.0 0.0 0.00 0.00 0.00 86 1009.1
20260510012521 58 239 0.0 0.0 0.00 0.00 0.00 86 1009.1
20260510012425 58 239 0.0 0.0 0.00 0.00 0.00 86 1009.1
20260510012327 58 239 0.0 0.0 0.00 0.00 0.00 86 1009.1
20260510012233 58 239 0.0 0.0 0.00 0.00 0.00 86 1009.0
20260510012119 58 239 0.0 0.0 0.00 0.00 0.00 85 1009.0
20260510012032 58 239 0.0 0.0 0.00 0.00 0.00 85 1009.1
20260510011938 58 239 0.0 0.0 0.00 0.00 0.00 85 1009.0
20260510011819 58 239 0.0 0.0 0.00 0.00 0.00 85 1009.0
20260510011732 59 239 0.0 0.0 0.00 0.00 0.00 85 1009.0
20260510011615 59 239 0.0 0.0 0.00 0.00 0.00 85 1008.9
20260510011605 58 239 0.0 0.0 0.00 0.00 0.00 85 1008.7
20260510011521 59 239 0.0 0.0 0.00 0.00 0.00 85 1008.9
20260510011456 59 239 0.0 0.0 0.00 0.00 0.00 85 1008.9
20260510011315 59 239 0.0 0.0 0.00 0.00 0.00 85 1008.9
20260510011228 59 239 0.0 0.0 0.00 0.00 0.00 84 1008.9
20260510011135 59 239 0.0 0.0 0.00 0.00 0.00 84 1009.0
20260510011015 59 239 0.0 0.0 0.00 0.00 0.00 85 1008.9
20260510010945 59 239 0.0 0.0 0.00 0.00 0.00 85 1008.9
20260510010915 59 239 0.0 0.0 0.00 0.00 0.00 84 1008.9
20260510010710 59 239 0.0 0.0 0.00 0.00 0.00 84 1008.9
20260510010616 60 239 0.0 0.0 0.00 0.00 0.00 83 1008.9
20260510010529 60 239 0.0 0.0 0.00 0.00 0.00 83 1008.9
20260510010413 60 239 0.0 0.0 0.00 0.00 0.00 83 1008.8
20260510010322 60 239 0.0 0.0 0.00 0.00 0.00 83 1008.8
20260510010228 60 239 0.0 0.0 0.00 0.00 0.00 83 1008.8
20260510010125 60 239 0.0 0.0 0.00 0.00 0.00 83 1008.8
20260510010024 60 239 0.0 0.0 0.00 0.00 0.00 83 1008.5
20260510010009 60 239 0.0 0.0 0.00 0.00 0.00 83 1008.7
20260510005923 60 239 0.0 0.0 0.00 0.00 0.00 83 1008.7
20260510005813 60 239 0.0 0.0 0.00 0.00 0.00 83 1008.6
20260510005715 60 239 0.0 0.0 0.00 0.00 0.00 83 1008.6
20260510005622 60 239 0.0 0.0 0.00 0.00 0.00 83 1008.6
20260510005536 61 239 0.0 0.0 0.00 0.00 0.00 83 1008.6
20260510005414 61 239 0.0 0.0 0.00 0.00 0.00 81 1008.6
20260510005327 61 239 0.0 0.0 0.00 0.00 0.00 81 1008.6
20260510005232 61 239 0.0 0.0 0.00 0.00 0.00 81 1008.5
20260510005118 61 239 0.0 0.0 0.00 0.00 0.00 81 1008.5
20260510005031 61 239 0.0 0.0 0.00 0.00 0.00 80 1008.5
20260510004917 61 239 0.0 0.0 0.00 0.00 0.00 81 1008.5
20260510004824 61 239 0.0 0.0 0.00 0.00 0.00 81 1008.5
20260510004710 61 239 0.0 0.0 0.00 0.00 0.00 81 1008.5
20260510004620 61 239 0.0 0.0 0.00 0.00 0.00 81 1008.5
20260510004530 62 239 0.0 0.0 0.00 0.00 0.00 81 1008.5
20260510004522 61 239 0.0 0.0 0.00 0.00 0.00 81 1008.2
20260510004432 62 239 0.0 0.0 0.00 0.00 0.00 81 1008.4
20260510004319 62 239 0.0 0.0 0.00 0.00 0.00 80 1008.4
20260510004225 62 239 0.0 0.0 0.00 0.00 0.00 80 1008.3
20260510004116 62 239 0.0 0.0 0.00 0.00 0.00 78 1008.3
20260510004023 62 239 0.0 0.0 0.00 0.00 0.00 78 1008.3
20260510003936 62 239 0.0 0.0 0.00 0.00 0.00 79 1008.3
20260510003842 62 239 0.0 0.0 0.00 0.00 0.00 79 1008.3
20260510003733 62 239 0.0 0.0 0.00 0.00 0.00 78 1008.2
20260510003611 63 239 0.0 0.0 0.00 0.00 0.00 77 1008.3
20260510003524 63 239 0.0 0.0 0.00 0.00 0.00 77 1008.3
20260510003414 63 239 0.0 0.0 0.00 0.00 0.00 78 1008.3
20260510003320 63 239 0.0 0.0 0.00 0.00 0.00 78 1008.3
20260510003227 63 239 0.0 0.0 0.00 0.00 0.00 78 1008.2
20260510003114 63 239 0.0 0.0 0.00 0.00 0.00 78 1008.2
20260510003027 63 239 0.0 0.0 0.00 0.00 0.00 78 1008.2
20260510003023 63 239 0.0 0.0 0.00 0.00 0.00 76 1007.9
20260510002917 63 239 0.0 0.0 0.00 0.00 0.00 75 1008.2
20260510002824 63 239 0.0 0.0 0.00 0.00 0.00 75 1008.1
20260510002710 64 239 0.0 0.0 0.00 0.00 0.00 75 1008.1
20260510002618 64 239 0.0 0.0 0.00 0.00 0.00 76 1008.1
20260510002518 64 239 0.0 0.0 0.00 0.00 0.00 76 1008.2
20260510002428 64 239 0.0 0.0 0.00 0.00 0.00 76 1008.2
20260510002319 64 239 0.0 0.0 0.00 0.00 0.00 75 1008.1
20260510002245 64 239 0.0 0.0 0.00 0.00 0.00 75 1008.1
20260510002111 64 239 0.0 0.0 0.00 0.00 0.00 75 1008.1
20260510002023 64 239 0.0 0.0 0.00 0.00 0.00 75 1008.1
20260510001931 64 239 0.0 0.0 0.00 0.00 0.00 74 1008.0
20260510001838 65 239 0.0 0.0 0.00 0.00 0.00 73 1008.0
20260510001727 65 239 0.0 0.0 0.00 0.00 0.00 74 1008.0
20260510001614 65 239 0.0 0.0 0.00 0.00 0.00 74 1008.0
20260510001526 65 239 0.0 0.0 0.00 0.00 0.00 74 1008.0
20260510001508 64 239 0.0 0.0 0.00 0.00 0.00 74 1007.7
20260510001412 65 239 0.0 0.0 0.00 0.00 0.00 74 1007.9
20260510001320 65 239 0.0 0.0 0.00 0.00 0.00 74 1007.9
20260510001252 65 239 0.0 0.0 0.00 0.00 0.00 73 1007.9
20260510001118 65 239 0.0 0.0 0.00 0.00 0.00 72 1007.9
20260510001022 65 239 0.0 0.0 0.00 0.00 0.00 71 1007.9
20260510000923 66 239 0.0 0.0 0.00 0.00 0.00 71 1007.9
20260510000825 66 239 0.0 0.0 0.00 0.00 0.00 72 1007.9
20260510000734 66 239 0.0 0.0 0.00 0.00 0.00 73 1007.8
20260510000622 66 239 0.0 0.0 0.00 0.00 0.00 74 1007.8
20260510000527 66 239 0.0 0.0 0.00 0.00 0.00 74 1007.8
20260510000411 66 239 0.0 0.0 0.00 0.00 0.00 73 1007.8
20260510000342 66 239 0.0 0.0 0.00 0.00 0.00 72 1007.8
20260510000238 67 239 0.0 0.0 0.00 0.00 0.00 72 1007.8
20260510000122 67 239 0.0 0.0 0.00 0.00 0.00 72 1007.8
20260510000038 66 239 0.0 0.0 0.00 0.00 0.00 69 1007.5
20260510000012 67 239 0.0 0.0 0.00 0.00 0.00 68 1007.8
20260509235918 67 239 0.0 0.0 0.00 0.00 0.00 69 1007.8
20260509235831 67 239 0.0 0.0 0.00 0.00 0.00 69 1007.8
20260509235734 67 239 0.0 0.0 0.00 0.00 0.00 69 1007.7
20260509235620 67 239 0.0 0.0 0.00 0.00 0.00 69 1007.7
20260509235533 68 239 0.0 0.0 0.00 0.00 0.00 68 1007.7
20260509235416 68 239 0.0 0.0 0.00 0.00 0.00 68 1007.7
20260509235327 68 239 0.0 0.0 0.00 0.00 0.00 69 1007.8
20260509235240 68 239 0.0 0.0 0.00 0.00 0.00 67 1007.8
20260509235126 68 239 0.0 0.0 0.00 0.00 0.00 66 1007.7
20260509235013 68 239 0.0 0.0 0.00 0.00 0.00 68 1007.8
20260509234919 68 239 0.0 0.0 0.00 0.00 0.00 68 1007.8
20260509234810 68 239 0.0 0.0 0.00 0.00 0.00 68 1007.8
20260509234717 68 239 0.0 0.0 0.00 0.00 0.00 65 1007.8
20260509234630 69 239 0.0 0.0 0.00 0.00 0.00 65 1007.8
20260509234613 68 239 0.0 0.0 0.00 0.00 0.00 65 1007.5
20260509234515 69 239 0.0 0.0 0.00 0.00 0.00 65 1007.8
20260509234421 69 239 0.0 0.0 0.00 0.00 0.00 66 1007.8
20260509234334 69 239 0.0 0.0 0.00 0.00 0.00 64 1007.8
20260509234225 69 296 0.0 0.0 0.00 0.00 0.00 64 1007.8
20260509234113 69 296 0.0 0.0 0.00 0.00 0.00 66 1007.8
20260509234016 70 296 0.0 0.0 0.00 0.00 0.00 64 1007.8
20260509233942 70 296 0.0 0.0 0.00 0.00 0.00 65 1007.8
20260509233834 70 296 0.0 0.0 0.00 0.00 0.00 65 1007.8
20260509233740 70 296 0.0 0.0 0.00 0.00 0.00 61 1007.8
20260509233609 70 296 0.0 0.0 0.00 0.00 0.00 61 1007.8
20260509233515 70 296 0.0 0.0 0.00 0.00 0.00 61 1007.8
20260509233425 70 296 0.0 0.0 0.00 0.00 0.00 62 1007.8
20260509233311 70 296 0.0 0.0 0.00 0.00 0.00 60 1007.7
20260509233218 70 296 0.0 0.0 0.00 0.00 0.00 61 1007.7
20260509233121 70 296 0.0 0.0 0.00 0.00 0.00 60 1007.7
20260509233038 70 296 0.0 0.0 0.00 0.00 0.00 60 1007.4
20260509233011 71 296 0.0 0.0 0.00 0.00 0.00 60 1007.7
20260509232918 71 296 0.0 0.0 0.00 0.00 0.00 60 1007.7
20260509232831 71 298 0.0 0.0 0.00 0.00 0.00 60 1007.7
20260509232718 71 298 0.0 0.0 0.00 0.00 0.00 61 1007.7
20260509232644 71 300 0.0 0.0 0.00 0.00 0.00 59 1007.7
20260509232549 71 297 0.0 0.0 0.00 0.00 0.00 59 1007.7
20260509232416 71 297 0.0 0.0 0.00 0.00 0.00 60 1007.7
20260509232322 71 297 0.0 0.0 0.00 0.00 0.00 59 1007.7
20260509232235 71 297 0.0 0.0 0.00 0.00 0.00 61 1007.7
20260509232117 72 297 0.0 0.0 0.00 0.00 0.00 57 1007.7
20260509232050 72 297 0.0 0.0 0.00 0.00 0.00 59 1007.7
20260509231931 72 297 0.0 0.0 0.00 0.00 0.00 58 1007.7
20260509231834 72 297 0.0 0.0 0.00 0.00 0.00 58 1007.7
20260509231723 72 297 0.0 0.0 0.00 0.00 0.00 59 1007.7
20260509231609 72 297 0.0 0.0 0.00 0.00 0.00 60 1007.6
20260509231522 72 308 0.0 2.0 0.00 0.00 0.00 56 1007.6
20260509231505 71 308 0.0 2.0 0.00 0.00 0.00 57 1007.3
20260509231427 72 324 0.0 2.0 0.00 0.00 0.00 57 1007.6
20260509231313 72 40 0.0 2.0 0.00 0.00 0.00 57 1007.6
20260509231220 72 31 0.0 2.0 0.00 0.00 0.00 59 1007.6
20260509231110 72 13 0.0 2.0 0.00 0.00 0.00 57 1007.6
20260509231017 72 226 0.0 2.0 0.00 0.00 0.00 58 1007.6
20260509230930 72 262 0.0 2.0 0.00 0.00 0.00 58 1007.6
20260509230813 72 262 0.0 2.0 0.00 0.00 0.00 56 1007.6
20260509230721 72 268 0.0 2.0 0.00 0.00 0.00 55 1007.6
20260509230623 73 53 0.0 0.0 0.00 0.00 0.00 56 1007.6
20260509230510 73 33 0.0 0.0 0.00 0.00 0.00 57 1007.6
20260509230423 73 20 0.0 0.0 0.00 0.00 0.00 55 1007.6
20260509230310 73 196 0.0 0.0 0.00 0.00 0.00 55 1007.6
20260509230216 73 341 0.0 0.0 0.00 0.00 0.00 57 1007.6
20260509230121 73 341 0.0 0.0 0.00 0.00 0.00 56 1007.6
20260509230044 73 31 0.0 0.0 0.00 0.00 0.00 55 1007.3
20260509230011 73 31 0.0 0.0 0.00 0.00 0.00 55 1007.6
20260509225945 73 38 0.0 0.0 0.00 0.00 0.00 56 1007.6
20260509225831 73 38 0.0 0.0 0.00 0.00 0.00 55 1007.6
20260509225717 73 63 0.0 0.0 0.00 0.00 0.00 56 1007.6
20260509225630 73 41 0.0 0.0 0.00 0.00 0.00 56 1007.6
20260509225517 74 329 0.0 0.0 0.00 0.00 0.00 54 1007.7
20260509225428 74 329 0.0 0.0 0.00 0.00 0.00 54 1007.7
20260509225334 74 329 0.0 1.0 0.00 0.00 0.00 56 1007.6
20260509225220 74 330 0.0 1.0 0.00 0.00 0.00 52 1007.6
20260509225133 74 231 0.0 1.0 0.00 0.00 0.00 52 1007.6
20260509225018 74 33 0.0 1.0 0.00 0.00 0.00 53 1007.6
20260509224925 74 43 0.0 1.0 0.00 0.00 0.00 55 1007.6
20260509224815 75 43 0.0 4.0 0.00 0.00 0.00 53 1007.6
20260509224748 75 49 0.0 4.0 0.00 0.00 0.00 55 1007.6
20260509224614 75 43 0.0 4.0 0.00 0.00 0.00 51 1007.6
20260509224541 74 52 0.0 4.0 0.00 0.00 0.00 51 1007.3
20260509224518 75 23 0.0 4.0 0.00 0.00 0.00 51 1007.6
20260509224447 75 117 0.0 4.0 0.00 0.00 0.00 51 1007.6
20260509224326 75 121 0.0 4.0 0.00 0.00 0.00 51 1007.7
20260509224232 75 292 0.0 4.0 0.00 0.00 0.00 52 1007.7
20260509224148 75 292 0.0 4.0 0.00 0.00 0.00 50 1007.7
20260509224014 75 304 0.0 8.0 0.00 0.00 0.00 51 1007.7
20260509223920 75 319 0.0 8.0 0.00 0.00 0.00 51 1007.7
20260509223833 76 306 0.0 8.0 0.00 0.00 0.00 51 1007.6
20260509223720 76 289 0.0 8.0 0.00 0.00 0.00 50 1007.6
20260509223609 76 74 0.0 8.0 0.00 0.00 0.00 49 1007.6
20260509223516 76 10 0.0 8.0 0.00 0.00 0.00 50 1007.6
20260509223423 76 36 0.0 8.0 0.00 0.00 0.00 49 1007.6
20260509223337 76 300 1.0 8.0 0.00 0.00 0.00 49 1007.6
20260509223241 76 313 1.0 8.0 0.00 0.00 0.00 48 1007.6
20260509223123 76 313 0.0 5.0 0.00 0.00 0.00 50 1007.6
20260509223035 76 329 0.0 3.0 0.00 0.00 0.00 49 1007.6
20260509223014 75 40 0.0 3.0 0.00 0.00 0.00 49 1007.3
20260509222941 76 62 0.0 3.0 0.00 0.00 0.00 49 1007.6
20260509222812 76 329 0.0 3.0 0.00 0.00 0.00 51 1007.5
20260509222715 76 290 0.0 3.0 0.00 0.00 0.00 48 1007.6
20260509222627 76 320 0.0 3.0 0.00 0.00 0.00 48 1007.6
20260509222513 76 72 0.0 3.0 0.00 0.00 0.00 48 1007.6
20260509222419 76 99 0.0 3.0 0.00 0.00 0.00 48 1007.6
20260509222321 76 89 0.0 3.0 0.00 0.00 0.00 49 1007.6
20260509222233 76 187 0.0 3.0 0.00 0.00 0.00 47 1007.6
20260509222112 76 17 0.0 1.0 0.00 0.00 0.00 48 1007.6
20260509222023 76 333 0.0 1.0 0.00 0.00 0.00 48 1007.6
20260509221909 76 55 0.0 1.0 0.00 0.00 0.00 47 1007.5
20260509221836 76 5 0.0 1.0 0.00 0.00 0.00 49 1007.5
20260509221732 76 63 0.0 1.0 0.00 0.00 0.00 48 1007.5
20260509221618 76 134 0.0 1.0 0.00 0.00 0.00 47 1007.5
20260509221605 76 105 0.0 1.0 0.00 0.00 0.00 48 1007.2
20260509221524 76 259 0.0 1.0 0.00 0.00 0.00 47 1007.5
20260509221412 76 314 0.0 0.0 0.00 0.00 0.00 48 1007.5
20260509221316 76 10 0.0 2.0 0.00 0.00 0.00 51 1007.5
20260509221235 76 304 0.0 2.0 0.00 0.00 0.00 50 1007.5
20260509221139 76 19 0.0 3.0 0.00 0.00 0.00 49 1007.5
20260509221039 76 19 0.0 3.0 0.00 0.00 0.00 47 1007.5
20260509220925 76 53 0.0 8.0 0.00 0.00 0.00 48 1007.5
20260509220811 76 107 0.0 8.0 0.00 0.00 0.00 48 1007.5
20260509220744 76 355 0.0 8.0 0.00 0.00 0.00 48 1007.5
20260509220614 76 26 0.0 8.0 0.00 0.00 0.00 47 1007.5
20260509220520 76 355 0.0 8.0 0.00 0.00 0.00 47 1007.5
20260509220432 76 64 0.0 8.0 0.00 0.00 0.00 48 1007.5
20260509220316 76 277 1.0 8.0 0.00 0.00 0.00 48 1007.6
20260509220221 76 303 2.0 8.0 0.00 0.00 0.00 47 1007.6
20260509220128 76 5 1.0 8.0 0.00 0.00 0.00 48 1007.6
20260509220049 75 92 0.0 7.0 0.00 0.00 0.00 48 1007.2
20260509220011 76 349 0.0 4.0 0.00 0.00 0.00 48 1007.6
20260509215917 75 15 0.0 1.0 0.00 0.00 0.00 47 1007.6
20260509215830 75 34 0.0 1.0 0.00 0.00 0.00 48 1007.6
20260509215730 75 34 0.0 1.0 0.00 0.00 0.00 51 1007.6
20260509215614 75 9 0.0 1.0 0.00 0.00 0.00 49 1007.5
20260509215544 75 334 0.0 1.0 0.00 0.00 0.00 47 1007.5
20260509215431 75 32 0.0 3.0 0.00 0.00 0.00 48 1007.5
20260509215343 75 17 0.0 3.0 0.00 0.00 0.00 50 1007.5
20260509215210 75 62 0.0 3.0 0.00 0.00 0.00 47 1007.6
20260509215115 75 26 0.0 3.0 0.00 0.00 0.00 48 1007.6
20260509215041 75 38 0.0 3.0 0.00 0.00 0.00 47 1007.6
20260509214933 75 75 0.0 3.0 0.00 0.00 0.00 50 1007.6
20260509214839 75 82 0.0 3.0 0.00 0.00 0.00 47 1007.6
20260509214728 75 49 0.0 3.0 0.00 0.00 0.00 47 1007.5
20260509214641 76 313 0.0 3.0 0.00 0.00 0.00 47 1007.6
20260509214604 75 313 0.0 3.0 0.00 0.00 0.00 47 1007.3
20260509214546 76 340 0.0 0.0 0.00 0.00 0.00 47 1007.6
20260509214411 76 46 0.0 0.0 0.00 0.00 0.00 48 1007.6
20260509214324 76 47 0.0 0.0 0.00 0.00 0.00 47 1007.6
20260509214230 76 303 0.0 0.0 0.00 0.00 0.00 49 1007.6
20260509214120 76 326 0.0 0.0 0.00 0.00 0.00 50 1007.7
20260509214020 76 360 0.0 0.0 0.00 0.00 0.00 52 1007.7
20260509213927 75 5 0.0 0.0 0.00 0.00 0.00 47 1007.6
20260509213813 75 26 0.0 0.0 0.00 0.00 0.00 48 1007.6
20260509213726 75 52 0.0 0.0 0.00 0.00 0.00 49 1007.6
20260509213617 75 25 0.0 0.0 0.00 0.00 0.00 47 1007.6
20260509213551 75 61 0.0 3.0 0.00 0.00 0.00 47 1007.6
20260509213449 75 40 0.0 3.0 0.00 0.00 0.00 48 1007.6
20260509213316 75 55 0.0 6.0 0.00 0.00 0.00 48 1007.6
20260509213229 75 34 0.0 6.0 0.00 0.00 0.00 50 1007.6
20260509213131 75 19 0.0 6.0 0.00 0.00 0.00 48 1007.5
20260509213045 75 92 0.0 6.0 0.00 0.00 0.00 47 1007.5
20260509212911 75 63 0.0 6.0 0.00 0.00 0.00 46 1007.5
20260509212813 75 17 0.0 6.0 0.00 0.00 0.00 46 1007.5
20260509212720 75 89 0.0 6.0 0.00 0.00 0.00 47 1007.5
20260509212633 75 22 1.0 6.0 0.00 0.00 0.00 48 1007.5
20260509212520 75 175 1.0 6.0 0.00 0.00 0.00 46 1007.4
20260509212426 75 15 0.0 6.0 0.00 0.00 0.00 50 1007.4
20260509212312 75 216 0.0 6.0 0.00 0.00 0.00 47 1007.5
20260509212222 75 122 0.0 6.0 0.00 0.00 0.00 47 1007.5
20260509212135 75 133 0.0 7.0 0.00 0.00 0.00 47 1007.5
20260509212015 75 11 0.0 7.0 0.00 0.00 0.00 47 1007.5
20260509211928 76 30 0.0 7.0 0.00 0.00 0.00 48 1007.5
20260509211815 76 132 0.0 7.0 0.00 0.00 0.00 46 1007.5
20260509211722 76 75 0.0 7.0 0.00 0.00 0.00 46 1007.5
20260509211612 76 30 0.0 7.0 0.00 0.00 0.00 45 1007.4
20260509211548 75 24 0.0 7.0 0.00 0.00 0.00 45 1007.1
20260509211518 76 21 0.0 7.0 0.00 0.00 0.00 45 1007.4
20260509211431 76 360 0.0 7.0 0.00 0.00 0.00 46 1007.4
20260509211311 76 119 0.0 4.0 0.00 0.00 0.00 45 1007.5
20260509211224 76 26 1.0 4.0 0.00 0.00 0.00 45 1007.5
20260509211114 77 119 1.0 4.0 0.00 0.00 0.00 44 1007.5
20260509211021 77 84 0.0 1.0 0.00 0.00 0.00 45 1007.5
20260509210920 77 90 0.0 1.0 0.00 0.00 0.00 43 1007.4
20260509210830 77 84 0.0 1.0 0.00 0.00 0.00 45 1007.4
20260509210736 77 29 0.0 1.0 0.00 0.00 0.00 44 1007.5
20260509210625 77 330 0.0 1.0 0.00 0.00 0.00 44 1007.5
20260509210515 78 15 0.0 1.0 0.00 0.00 0.00 46 1007.5
20260509210442 78 66 0.0 4.0 0.00 0.00 0.00 45 1007.5
20260509210334 78 11 0.0 4.0 0.00 0.00 0.00 44 1007.4
20260509210214 78 317 0.0 4.0 0.00 0.00 0.00 43 1007.4
20260509210126 78 329 0.0 4.0 0.00 0.00 0.00 43 1007.4
20260509210046 78 297 0.0 11.0 0.00 0.00 0.00 43 1007.0
20260509210011 78 326 0.0 11.0 0.00 0.00 0.00 46 1007.3
20260509205944 78 298 0.0 11.0 0.00 0.00 0.00 44 1007.3
20260509205827 78 311 0.0 11.0 0.00 0.00 0.00 46 1007.3
20260509205710 78 303 0.0 11.0 0.00 0.00 0.00 44 1007.2
20260509205643 78 295 0.0 11.0 0.00 0.00 0.00 44 1007.2
20260509205509 78 300 0.0 11.0 0.00 0.00 0.00 45 1007.3
20260509205414 78 311 1.0 11.0 0.00 0.00 0.00 44 1007.3
20260509205346 78 19 1.0 11.0 0.00 0.00 0.00 44 1007.3
20260509205226 78 275 1.0 11.0 0.00 0.00 0.00 47 1007.3
20260509205143 78 23 0.0 0.0 0.00 0.00 0.00 45 1007.3
20260509205048 78 74 0.0 0.0 0.00 0.00 0.00 45 1007.3
20260509205000 78 286 0.0 0.0 0.00 0.00 0.00 45 1007.3
20260509204821 78 336 0.0 0.0 0.00 0.00 0.00 43 1007.3
20260509204722 78 328 0.0 0.0 0.00 0.00 0.00 44 1007.4
20260509204629 78 44 0.0 2.0 0.00 0.00 0.00 45 1007.3
20260509204534 77 28 0.0 5.0 0.00 0.00 0.00 44 1007.0
20260509204514 78 28 0.0 5.0 0.00 0.00 0.00 44 1007.3
20260509204431 78 292 0.0 5.0 0.00 0.00 0.00 44 1007.3
20260509204316 77 296 0.0 5.0 0.00 0.00 0.00 44 1007.2
20260509204222 77 115 0.0 5.0 0.00 0.00 0.00 44 1007.2
20260509204128 77 58 0.0 5.0 0.00 0.00 0.00 45 1007.2
20260509204015 77 5 0.0 5.0 0.00 0.00 0.00 46 1007.3
20260509203926 77 30 0.0 7.0 0.00 0.00 0.00 46 1007.3
20260509203811 77 305 0.0 7.0 0.00 0.00 0.00 45 1007.2
20260509203724 77 15 0.0 7.0 0.00 0.00 0.00 44 1007.2
20260509203611 77 36 0.0 7.0 0.00 0.00 0.00 45 1007.3
20260509203537 77 73 1.0 7.0 0.00 0.00 0.00 44 1007.3
20260509203449 77 65 1.0 7.0 0.00 0.00 0.00 44 1007.1
20260509203318 77 107 0.0 7.0 0.00 0.00 0.00 44 1007.2
20260509203224 77 71 0.0 7.0 0.00 0.00 0.00 44 1007.2
20260509203146 77 16 0.0 7.0 0.00 0.00 0.00 44 1006.9
20260509203138 77 24 1.0 7.0 0.00 0.00 0.00 44 1007.2
20260509203022 77 240 1.0 7.0 0.00 0.00 0.00 45 1007.2
20260509202928 77 75 0.0 1.0 0.00 0.00 0.00 45 1007.2
20260509202814 77 28 0.0 1.0 0.00 0.00 0.00 46 1007.2
20260509202726 77 312 0.0 1.0 0.00 0.00 0.00 46 1007.2
20260509202616 77 243 0.0 9.0 0.00 0.00 0.00 45 1007.2
20260509202523 77 309 0.0 9.0 0.00 0.00 0.00 46 1007.2
20260509202426 77 32 0.0 9.0 0.00 0.00 0.00 45 1007.3
20260509202312 77 252 0.0 9.0 0.00 0.00 0.00 46 1007.2
20260509202218 76 267 0.0 9.0 0.00 0.00 0.00 46 1007.2
20260509202135 76 45 0.0 9.0 0.00 0.00 0.00 46 1007.1
20260509202037 76 81 0.0 9.0 0.00 0.00 0.00 50 1007.1
20260509201938 76 254 2.0 9.0 0.00 0.00 0.00 50 1007.3
20260509201823 76 351 2.0 9.0 0.00 0.00 0.00 46 1007.2
20260509201710 76 355 0.0 1.0 0.00 0.00 0.00 45 1007.3
20260509201634 76 61 0.0 1.0 0.00 0.00 0.00 46 1007.0
20260509201616 76 72 0.0 1.0 0.00 0.00 0.00 46 1007.3
20260509201549 76 252 0.0 1.0 0.00 0.00 0.00 47 1007.4
20260509201439 76 277 0.0 0.0 0.00 0.00 0.00 46 1007.4
20260509201331 76 230 0.0 0.0 0.00 0.00 0.00 46 1007.3
20260509201218 76 275 0.0 0.0 0.00 0.00 0.00 46 1007.3
20260509201125 75 298 0.0 1.0 0.00 0.00 0.00 46 1007.4
20260509201022 75 245 0.0 1.0 0.00 0.00 0.00 47 1007.3
20260509200909 75 103 0.0 1.0 0.00 0.00 0.00 49 1007.4
20260509200819 75 290 0.0 1.0 0.00 0.00 0.00 48 1007.4
20260509200729 75 290 0.0 1.0 0.00 0.00 0.00 46 1007.4
20260509200616 75 36 0.0 1.0 0.00 0.00 0.00 48 1007.4
20260509200522 75 277 0.0 1.0 0.00 0.00 0.00 46 1007.4
20260509200409 75 18 0.0 1.0 0.00 0.00 0.00 46 1007.4
20260509200319 75 37 0.0 1.0 0.00 0.00 0.00 46 1007.4
20260509200233 75 248 0.0 0.0 0.00 0.00 0.00 46 1007.4
20260509200118 75 252 0.0 0.0 0.00 0.00 0.00 48 1007.4
20260509200044 75 312 0.0 0.0 0.00 0.00 0.00 48 1007.4
20260509195910 75 30 0.0 2.0 0.00 0.00 0.00 46 1007.4
20260509195823 75 38 0.0 2.0 0.00 0.00 0.00 46 1007.4
20260509195713 76 31 0.0 2.0 0.00 0.00 0.00 47 1007.4
20260509195620 76 311 0.0 2.0 0.00 0.00 0.00 45 1007.4
20260509195526 76 292 0.0 2.0 0.00 0.00 0.00 45 1007.4
20260509195413 76 327 0.0 6.0 0.00 0.00 0.00 46 1007.5
20260509195327 76 360 0.0 6.0 0.00 0.00 0.00 47 1007.5
20260509195231 75 46 0.0 6.0 0.00 0.00 0.00 46 1007.4
20260509195123 75 46 0.0 9.0 0.00 0.00 0.00 46 1007.5
20260509195029 76 61 0.0 9.0 0.00 0.00 0.00 47 1007.5
20260509194916 76 30 0.0 9.0 0.00 0.00 0.00 45 1007.5
20260509194822 76 63 0.0 9.0 0.00 0.00 0.00 45 1007.5
20260509194736 76 78 1.0 9.0 0.00 0.00 0.00 46 1007.6
20260509194620 76 53 1.0 9.0 0.00 0.00 0.00 47 1007.6
20260509194551 75 59 0.0 9.0 0.00 0.00 0.00 47 1007.4
20260509194510 76 83 0.0 9.0 0.00 0.00 0.00 47 1007.6
20260509194417 76 31 1.0 9.0 0.00 0.00 0.00 46 1007.6
20260509194323 76 36 1.0 9.0 0.00 0.00 0.00 48 1007.6
20260509194210 76 76 0.0 5.0 0.00 0.00 0.00 47 1007.6
20260509194122 76 31 0.0 5.0 0.00 0.00 0.00 46 1007.6
20260509194025 76 92 0.0 5.0 0.00 0.00 0.00 45 1007.6
20260509193912 76 108 0.0 5.0 0.00 0.00 0.00 47 1007.7
20260509193818 76 15 0.0 5.0 0.00 0.00 0.00 49 1007.7
20260509193731 75 5 0.0 5.0 0.00 0.00 0.00 48 1007.7
20260509193638 75 32 0.0 5.0 0.00 0.00 0.00 50 1007.7
20260509193522 75 52 0.0 5.0 0.00 0.00 0.00 50 1007.7
20260509193412 75 173 0.0 5.0 0.00 0.00 0.00 50 1007.8
20260509193318 75 201 0.0 5.0 0.00 0.00 0.00 52 1007.8
20260509193231 74 360 0.0 1.0 0.00 0.00 0.00 52 1007.9
20260509193136 74 331 0.0 1.0 0.00 0.00 0.00 51 1007.7
20260509193117 74 336 0.0 1.0 0.00 0.00 0.00 51 1007.8
20260509193043 74 286 0.0 1.0 0.00 0.00 0.00 52 1007.9
20260509192935 74 338 0.0 0.0 0.00 0.00 0.00 51 1007.9
20260509192841 74 290 0.0 0.0 0.00 0.00 0.00 51 1007.9
20260509192711 74 285 0.0 1.0 0.00 0.00 0.00 51 1007.9
20260509192624 74 287 0.0 1.0 0.00 0.00 0.00 52 1007.9
20260509192532 74 286 0.0 1.0 0.00 0.00 0.00 54 1007.9
20260509192418 74 27 0.0 1.0 0.00 0.00 0.00 52 1008.0
20260509192344 74 27 0.0 1.0 0.00 0.00 0.00 51 1008.0
20260509192236 74 11 0.0 1.0 0.00 0.00 0.00 52 1007.9
20260509192126 74 334 0.0 1.0 0.00 0.00 0.00 55 1007.9
20260509192012 74 31 0.0 1.0 0.00 0.00 0.00 50 1007.9
20260509191918 74 28 0.0 1.0 0.00 0.00 0.00 50 1007.9
20260509191831 74 30 0.0 1.0 0.00 0.00 0.00 51 1007.9
20260509191717 74 39 0.0 4.0 0.00 0.00 0.00 51 1007.9
20260509191627 74 318 0.0 4.0 0.00 0.00 0.00 52 1008.0
20260509191615 73 345 0.0 4.0 0.00 0.00 0.00 53 1007.8
20260509191513 74 56 0.0 4.0 0.00 0.00 0.00 51 1008.1
20260509191420 74 57 0.0 4.0 0.00 0.00 0.00 52 1008.1
20260509191353 73 82 0.0 4.0 0.00 0.00 0.00 52 1008.1
20260509191218 73 94 0.0 4.0 0.00 0.00 0.00 56 1008.1
20260509191145 73 137 0.0 4.0 0.00 0.00 0.00 54 1008.1
20260509191014 73 324 0.0 4.0 0.00 0.00 0.00 51 1008.1
20260509190927 73 38 0.0 3.0 0.00 0.00 0.00 51 1008.1
20260509190829 73 277 0.0 5.0 0.00 0.00 0.00 51 1008.1
20260509190724 73 174 0.0 8.0 0.00 0.00 0.00 52 1008.1
20260509190611 73 57 0.0 8.0 0.00 0.00 0.00 52 1008.2
20260509190517 73 51 0.0 8.0 0.00 0.00 0.00 52 1008.2
20260509190434 73 55 0.0 8.0 0.00 0.00 0.00 51 1008.2
20260509190340 73 22 0.0 8.0 0.00 0.00 0.00 54 1008.2
20260509190225 73 37 0.0 8.0 0.00 0.00 0.00 52 1008.2
20260509190112 73 37 1.0 8.0 0.00 0.00 0.00 52 1008.1
20260509190024 73 42 1.0 8.0 0.00 0.00 0.00 51 1008.1
20260509190012 72 48 1.0 8.0 0.00 0.00 0.00 51 1007.9
20260509185911 73 338 0.0 0.0 0.00 0.00 0.00 51 1008.2
20260509185821 73 13 0.0 0.0 0.00 0.00 0.00 52 1008.2
20260509185754 73 333 0.0 0.0 0.00 0.00 0.00 52 1008.2
20260509185611 73 81 0.0 0.0 0.00 0.00 0.00 54 1008.2
20260509185525 73 39 0.0 0.0 0.00 0.00 0.00 52 1008.2
20260509185410 73 86 0.0 0.0 0.00 0.00 0.00 52 1008.3
20260509185317 73 20 0.0 0.0 0.00 0.00 0.00 51 1008.3
20260509185227 73 22 0.0 0.0 0.00 0.00 0.00 52 1008.3
20260509185115 73 71 0.0 0.0 0.00 0.00 0.00 53 1008.4
20260509185027 73 38 0.0 0.0 0.00 0.00 0.00 53 1008.4
20260509184933 73 50 0.0 0.0 0.00 0.00 0.00 52 1008.4
20260509184820 73 33 0.0 0.0 0.00 0.00 0.00 51 1008.4
20260509184710 73 38 0.0 0.0 0.00 0.00 0.00 51 1008.4
20260509184617 73 22 0.0 0.0 0.00 0.00 0.00 51 1008.4
20260509184539 72 15 0.0 0.0 0.00 0.00 0.00 52 1008.2
20260509184523 73 355 0.0 0.0 0.00 0.00 0.00 52 1008.4
20260509184410 73 46 0.0 0.0 0.00 0.00 0.00 52 1008.4
20260509184323 73 44 0.0 0.0 0.00 0.00 0.00 52 1008.4
20260509184213 73 306 0.0 0.0 0.00 0.00 0.00 52 1008.4
20260509184120 73 305 0.0 0.0 0.00 0.00 0.00 52 1008.4
20260509184023 73 263 0.0 0.0 0.00 0.00 0.00 52 1008.4
20260509183922 73 184 0.0 0.0 0.00 0.00 0.00 56 1008.4
20260509183832 73 184 0.0 0.0 0.00 0.00 0.00 54 1008.5
20260509183737 73 230 0.0 0.0 0.00 0.00 0.00 52 1008.5
20260509183629 73 230 0.0 0.0 0.00 0.00 0.00 54 1008.5
20260509183520 73 5 0.0 0.0 0.00 0.00 0.00 54 1008.5
20260509183427 73 322 0.0 0.0 0.00 0.00 0.00 56 1008.4
20260509183314 73 253 0.0 2.0 0.00 0.00 0.00 55 1008.5
20260509183220 73 253 0.0 2.0 0.00 0.00 0.00 54 1008.5
20260509183135 73 253 0.0 2.0 0.00 0.00 0.00 55 1008.5
20260509183025 73 253 0.0 2.0 0.00 0.00 0.00 55 1008.5
20260509183019 73 253 0.0 2.0 0.00 0.00 0.00 55 1008.3
20260509182836 73 253 0.0 6.0 0.00 0.00 0.00 53 1008.5
20260509182728 73 251 0.0 6.0 0.00 0.00 0.00 53 1008.5
20260509182614 73 61 0.0 6.0 0.00 0.00 0.00 53 1008.6
20260509182521 73 75 0.0 6.0 0.00 0.00 0.00 54 1008.6
20260509182454 73 239 0.0 6.0 0.00 0.00 0.00 53 1008.7
20260509182323 73 302 0.0 6.0 0.00 0.00 0.00 54 1008.6
20260509182210 73 314 0.0 6.0 0.00 0.00 0.00 54 1008.7
20260509182116 73 295 1.0 10.0 0.00 0.00 0.00 54 1008.7
20260509182023 73 328 1.0 10.0 0.00 0.00 0.00 57 1008.7
20260509181909 73 293 0.0 10.0 0.00 0.00 0.00 55 1008.8
20260509181820 73 293 0.0 10.0 0.00 0.00 0.00 55 1008.8
20260509181733 73 281 0.0 10.0 0.00 0.00 0.00 55 1008.9
20260509181619 73 126 0.0 10.0 0.00 0.00 0.00 55 1008.9
20260509181543 72 217 0.0 10.0 0.00 0.00 0.00 55 1008.7
20260509181524 73 217 0.0 10.0 0.00 0.00 0.00 55 1008.9
20260509181438 73 63 2.0 10.0 0.00 0.00 0.00 55 1008.9
20260509181341 73 44 2.0 10.0 0.00 0.00 0.00 54 1008.9
20260509181209 73 11 0.0 0.0 0.00 0.00 0.00 56 1009.0
20260509181116 73 5 0.0 0.0 0.00 0.00 0.00 56 1009.0
20260509181022 73 76 0.0 0.0 0.00 0.00 0.00 56 1009.0
20260509180936 73 290 0.0 0.0 0.00 0.00 0.00 59 1009.1
20260509180821 72 57 0.0 0.0 0.00 0.00 0.00 58 1009.2
20260509180729 72 60 0.0 0.0 0.00 0.00 0.00 59 1009.2
20260509180619 72 25 0.0 0.0 0.00 0.00 0.00 58 1009.3
20260509180526 72 22 0.0 2.0 0.00 0.00 0.00 59 1009.3
20260509180412 72 5 0.0 2.0 0.00 0.00 0.00 57 1009.3
20260509180327 72 34 0.0 2.0 0.00 0.00 0.00 58 1009.3
20260509180231 72 315 0.0 5.0 0.00 0.00 0.00 58 1009.4
20260509180120 72 51 0.0 5.0 0.00 0.00 0.00 57 1009.4
20260509180105 72 51 0.0 5.0 0.00 0.00 0.00 57 1009.2
20260509180021 72 46 0.0 5.0 0.00 0.00 0.00 56 1009.4
20260509175917 72 18 0.0 5.0 0.00 0.00 0.00 56 1009.4
20260509175850 72 98 0.0 5.0 0.00 0.00 0.00 55 1009.4
20260509175726 72 107 0.0 5.0 0.00 0.00 0.00 57 1009.5
20260509175610 72 72 1.0 5.0 0.00 0.00 0.00 58 1009.6
20260509175544 73 88 2.0 5.0 0.00 0.00 0.00 57 1009.6
20260509175413 73 65 1.0 5.0 0.00 0.00 0.00 57 1009.6
20260509175312 73 247 1.0 4.0 0.00 0.00 0.00 56 1009.6
20260509175219 73 309 0.0 1.0 0.00 0.00 0.00 56 1009.6
20260509175131 73 298 0.0 4.0 0.00 0.00 0.00 56 1009.6
20260509175018 73 305 0.0 6.0 0.00 0.00 0.00 55 1009.6
20260509174924 73 65 0.0 6.0 0.00 0.00 0.00 54 1009.6
20260509174815 73 336 0.0 6.0 0.00 0.00 0.00 54 1009.6
20260509174748 73 53 0.0 6.0 0.00 0.00 0.00 55 1009.6
20260509174614 72 30 0.0 6.0 0.00 0.00 0.00 56 1009.4
20260509174519 73 65 0.0 6.0 0.00 0.00 0.00 57 1009.7
20260509174452 73 58 1.0 6.0 0.00 0.00 0.00 55 1009.5
20260509174311 73 322 1.0 6.0 0.00 0.00 0.00 54 1009.6
20260509174228 73 318 0.0 3.0 0.00 0.00 0.00 57 1009.6
20260509174134 73 290 0.0 3.0 0.00 0.00 0.00 57 1009.6
20260509174046 73 257 0.0 3.0 0.00 0.00 0.00 57 1009.6
20260509173911 73 109 0.0 3.0 0.00 0.00 0.00 55 1009.7
20260509173837 73 105 0.0 3.0 0.00 0.00 0.00 57 1009.7
20260509173729 73 57 0.0 3.0 0.00 0.00 0.00 57 1009.7
20260509173619 73 75 0.0 3.0 0.00 0.00 0.00 56 1009.7
20260509173526 73 340 0.0 3.0 0.00 0.00 0.00 56 1009.8
20260509173432 73 113 0.0 3.0 0.00 0.00 0.00 56 1009.8
20260509173325 73 51 0.0 0.0 0.00 0.00 0.00 59 1009.8
20260509173231 73 81 0.0 5.0 0.00 0.00 0.00 58 1009.8
20260509173117 73 5 0.0 5.0 0.00 0.00 0.00 58 1009.8
20260509173104 72 360 0.0 5.0 0.00 0.00 0.00 58 1009.6
20260509173026 72 330 0.0 5.0 0.00 0.00 0.00 58 1009.8
20260509172913 72 5 0.0 5.0 0.00 0.00 0.00 60 1009.8
20260509172820 72 315 0.0 5.0 0.00 0.00 0.00 59 1009.8
20260509172733 72 323 0.0 5.0 0.00 0.00 0.00 58 1009.8
20260509172619 72 279 0.0 5.0 0.00 0.00 0.00 58 1009.8
20260509172526 72 36 1.0 5.0 0.00 0.00 0.00 57 1009.8
20260509172416 72 61 1.0 5.0 0.00 0.00 0.00 56 1009.8
20260509172323 72 209 1.0 7.0 0.00 0.00 0.00 57 1009.9
20260509172209 72 229 0.0 7.0 0.00 0.00 0.00 60 1009.9
20260509172122 72 294 0.0 7.0 0.00 0.00 0.00 60 1009.9
20260509172009 72 346 0.0 7.0 0.00 0.00 0.00 59 1009.9
20260509171919 72 22 0.0 7.0 0.00 0.00 0.00 60 1009.9
20260509171852 71 60 0.0 7.0 0.00 0.00 0.00 62 1009.9
20260509171737 71 37 0.0 7.0 0.00 0.00 0.00 58 1009.9
20260509171622 71 60 0.0 7.0 0.00 0.00 0.00 59 1010.0
20260509171536 71 44 1.0 7.0 0.00 0.00 0.00 58 1010.1
20260509171507 71 5 0.0 7.0 0.00 0.00 0.00 58 1009.9
20260509171420 71 355 1.0 5.0 0.00 0.00 0.00 58 1010.1
20260509171326 71 70 1.0 5.0 0.00 0.00 0.00 59 1010.1
20260509171217 71 16 0.0 2.0 0.00 0.00 0.00 60 1010.1
20260509171123 71 27 0.0 2.0 0.00 0.00 0.00 58 1010.1
20260509171009 71 324 0.0 9.0 0.00 0.00 0.00 59 1010.1
20260509170922 71 157 0.0 9.0 0.00 0.00 0.00 58 1010.1
20260509170809 71 355 0.0 9.0 0.00 0.00 0.00 59 1010.1
20260509170735 71 75 0.0 9.0 0.00 0.00 0.00 59 1010.0
20260509170631 70 76 0.0 9.0 0.00 0.00 0.00 63 1010.0
20260509170521 70 291 0.0 9.0 0.00 0.00 0.00 60 1010.1
20260509170424 70 311 1.0 9.0 0.00 0.00 0.00 61 1010.0
20260509170310 70 24 1.0 9.0 0.00 0.00 0.00 59 1010.1
20260509170217 71 37 1.0 4.0 0.00 0.00 0.00 59 1010.1
20260509170127 71 68 0.0 4.0 0.00 0.00 0.00 60 1010.1
20260509170031 70 196 0.0 4.0 0.00 0.00 0.00 60 1009.9
20260509170013 70 196 0.0 4.0 0.00 0.00 0.00 60 1010.1
20260509165926 70 118 0.0 4.0 0.00 0.00 0.00 60 1010.1
20260509165812 70 47 0.0 4.0 0.00 0.00 0.00 61 1010.0
20260509165719 70 277 0.0 4.0 0.00 0.00 0.00 61 1010.0
20260509165609 70 319 1.0 4.0 0.00 0.00 0.00 59 1010.0
20260509165535 70 5 1.0 4.0 0.00 0.00 0.00 58 1010.1
20260509165427 71 334 0.0 0.0 0.00 0.00 0.00 58 1010.1
20260509165314 71 245 0.0 0.0 0.00 0.00 0.00 61 1010.1
20260509165220 70 323 0.0 0.0 0.00 0.00 0.00 60 1010.1
20260509165153 70 36 0.0 0.0 0.00 0.00 0.00 60 1010.1
20260509165018 70 106 0.0 0.0 0.00 0.00 0.00 62 1010.1
20260509164928 70 347 0.0 0.0 0.00 0.00 0.00 60 1010.0
20260509164834 70 348 0.0 0.0 0.00 0.00 0.00 60 1010.1
20260509164726 70 180 0.0 0.0 0.00 0.00 0.00 62 1010.1
20260509164632 69 109 0.0 0.0 0.00 0.00 0.00 66 1010.1
20260509164558 69 79 0.0 0.0 0.00 0.00 0.00 66 1009.9
20260509164537 69 150 0.0 0.0 0.00 0.00 0.00 62 1010.1
20260509164449 69 186 0.0 0.0 0.00 0.00 0.00 63 1010.1
20260509164314 69 210 0.0 0.0 0.00 0.00 0.00 63 1010.1
20260509164251 68 96 0.0 0.0 0.00 0.00 0.00 61 1010.1
20260509164116 68 66 0.0 0.0 0.00 0.00 0.00 61 1010.1
20260509164041 68 322 0.0 0.0 0.00 0.00 0.00 62 1010.2
20260509163933 68 23 0.0 0.0 0.00 0.00 0.00 61 1010.2
20260509163821 68 63 0.0 0.0 0.00 0.00 0.00 62 1010.2
20260509163727 68 294 0.0 0.0 0.00 0.00 0.00 62 1010.2
20260509163617 68 96 0.0 0.0 0.00 0.00 0.00 61 1010.2
20260509163523 68 296 0.0 0.0 0.00 0.00 0.00 62 1010.2
20260509163430 68 5 0.0 0.0 0.00 0.00 0.00 61 1010.2
20260509163322 68 58 0.0 3.0 0.00 0.00 0.00 61 1010.2
20260509163228 68 288 0.0 3.0 0.00 0.00 0.00 62 1010.2
20260509163115 68 302 0.0 5.0 0.00 0.00 0.00 62 1010.2
20260509163052 68 293 0.0 5.0 0.00 0.00 0.00 59 1010.2
20260509163014 68 258 0.0 5.0 0.00 0.00 0.00 60 1010.0
20260509162917 68 247 0.0 5.0 0.00 0.00 0.00 60 1010.2
20260509162824 68 274 0.0 5.0 0.00 0.00 0.00 61 1010.1
20260509162719 68 257 0.0 5.0 0.00 0.00 0.00 62 1010.1
20260509162633 68 69 0.0 5.0 0.00 0.00 0.00 62 1010.1
20260509162512 68 70 1.0 5.0 0.00 0.00 0.00 60 1010.2
20260509162429 68 95 1.0 5.0 0.00 0.00 0.00 60 1010.2
20260509162336 68 269 1.0 6.0 0.00 0.00 0.00 60 1010.2
20260509162221 68 200 1.0 6.0 0.00 0.00 0.00 60 1010.2
20260509162134 68 136 1.0 6.0 0.00 0.00 0.00 61 1010.1
20260509162021 68 77 0.0 0.0 0.00 0.00 0.00 62 1010.2
20260509161911 68 315 0.0 0.0 0.00 0.00 0.00 61 1010.1
20260509161817 68 200 0.0 0.0 0.00 0.00 0.00 60 1010.1
20260509161750 68 44 0.0 0.0 0.00 0.00 0.00 61 1010.2
20260509161635 68 57 0.0 0.0 0.00 0.00 0.00 61 1010.2
20260509161609 68 31 0.0 0.0 0.00 0.00 0.00 61 1010.0
20260509161521 68 13 0.0 0.0 0.00 0.00 0.00 61 1010.2
20260509161426 68 281 0.0 0.0 0.00 0.00 0.00 60 1010.2
20260509161338 68 288 0.0 0.0 0.00 0.00 0.00 59 1010.2
20260509161228 68 265 0.0 0.0 0.00 0.00 0.00 59 1010.2
20260509161114 68 185 0.0 0.0 0.00 0.00 0.00 61 1010.2
20260509161047 68 5 0.0 0.0 0.00 0.00 0.00 60 1010.2
20260509160913 68 234 0.0 0.0 0.00 0.00 0.00 60 1010.1
20260509160839 68 256 0.0 0.0 0.00 0.00 0.00 61 1010.1
20260509160731 68 32 0.0 0.0 0.00 0.00 0.00 63 1010.1
20260509160618 68 39 0.0 0.0 0.00 0.00 0.00 60 1010.1
20260509160524 68 31 0.0 0.0 0.00 0.00 0.00 62 1010.2
20260509160410 68 24 0.0 0.0 0.00 0.00 0.00 64 1010.2
20260509160316 68 331 0.0 0.0 0.00 0.00 0.00 62 1010.2
20260509160221 68 329 0.0 0.0 0.00 0.00 0.00 60 1010.2
20260509160135 68 292 0.0 0.0 0.00 0.00 0.00 60 1010.3
20260509160101 67 292 0.0 0.0 0.00 0.00 0.00 60 1010.1
20260509160023 68 297 0.0 0.0 0.00 0.00 0.00 61 1010.3
20260509155924 68 316 0.0 0.0 0.00 0.00 0.00 61 1010.4
20260509155811 68 103 0.0 0.0 0.00 0.00 0.00 60 1010.3
20260509155724 68 99 0.0 0.0 0.00 0.00 0.00 61 1010.3
20260509155650 68 30 0.0 0.0 0.00 0.00 0.00 60 1010.3
20260509155516 68 32 0.0 0.0 0.00 0.00 0.00 59 1010.3
20260509155448 68 74 0.0 0.0 0.00 0.00 0.00 60 1010.3
20260509155319 68 74 0.0 0.0 0.00 0.00 0.00 61 1010.3
20260509155225 68 77 0.0 2.0 0.00 0.00 0.00 61 1010.4
20260509155131 68 88 0.0 2.0 0.00 0.00 0.00 60 1010.4
20260509155022 68 66 0.0 2.0 0.00 0.00 0.00 61 1010.4
20260509154910 68 73 0.0 2.0 0.00 0.00 0.00 61 1010.4
20260509154821 68 186 0.0 2.0 0.00 0.00 0.00 61 1010.4
20260509154727 68 312 0.0 2.0 0.00 0.00 0.00 60 1010.4
20260509154641 68 74 0.0 2.0 0.00 0.00 0.00 59 1010.4
20260509154525 68 57 0.0 2.0 0.00 0.00 0.00 60 1010.4
20260509154502 67 36 0.0 2.0 0.00 0.00 0.00 59 1010.2
20260509154411 68 68 0.0 2.0 0.00 0.00 0.00 59 1010.5
20260509154317 68 74 0.0 2.0 0.00 0.00 0.00 60 1010.5
20260509154112 68 26 0.0 2.0 0.00 0.00 0.00 60 1010.5
20260509154018 68 51 0.0 4.0 0.00 0.00 0.00 60 1010.5
20260509153925 68 35 0.0 4.0 0.00 0.00 0.00 59 1010.5
20260509153812 68 300 0.0 4.0 0.00 0.00 0.00 59 1010.5
20260509153719 67 345 0.0 4.0 0.00 0.00 0.00 60 1010.5
20260509153609 67 103 0.0 4.0 0.00 0.00 0.00 59 1010.4
20260509153522 67 63 0.0 4.0 0.00 0.00 0.00 59 1010.4
20260509153409 67 317 0.0 6.0 0.00 0.00 0.00 59 1010.5
20260509153316 67 332 0.0 6.0 0.00 0.00 0.00 59 1010.5
20260509153223 68 66 0.0 6.0 0.00 0.00 0.00 59 1010.5
20260509153114 68 197 0.0 6.0 0.00 0.00 0.00 61 1010.4
20260509153027 67 248 0.0 6.0 0.00 0.00 0.00 59 1010.4
20260509153017 67 350 0.0 6.0 0.00 0.00 0.00 59 1010.3
20260509152933 68 26 0.0 6.0 0.00 0.00 0.00 58 1010.4
20260509152819 68 14 0.0 6.0 0.00 0.00 0.00 58 1010.5
20260509152726 68 5 1.0 6.0 0.00 0.00 0.00 58 1010.5
20260509152632 68 78 1.0 6.0 0.00 0.00 0.00 59 1010.5
20260509152528 68 76 0.0 7.0 0.00 0.00 0.00 59 1010.5
20260509152414 68 80 0.0 0.0 0.00 0.00 0.00 59 1010.5
20260509152317 68 94 0.0 0.0 0.00 0.00 0.00 58 1010.5
20260509152224 68 309 0.0 0.0 0.00 0.00 0.00 59 1010.5
20260509152110 68 260 0.0 0.0 0.00 0.00 0.00 60 1010.5
20260509152043 67 85 0.0 0.0 0.00 0.00 0.00 60 1010.5
20260509151913 67 28 0.0 0.0 0.00 0.00 0.00 61 1010.5
20260509151839 67 281 0.0 0.0 0.00 0.00 0.00 61 1010.5
20260509151731 67 24 0.0 0.0 0.00 0.00 0.00 63 1010.5
20260509151617 66 355 0.0 0.0 0.00 0.00 0.00 62 1010.4
20260509151609 66 38 0.0 0.0 0.00 0.00 0.00 62 1010.2
20260509151523 66 309 0.0 0.0 0.00 0.00 0.00 62 1010.4
20260509151409 66 59 0.0 0.0 0.00 0.00 0.00 60 1010.3
20260509151319 66 300 0.0 0.0 0.00 0.00 0.00 62 1010.3
20260509151232 66 315 0.0 0.0 0.00 0.00 0.00 61 1010.3
20260509151118 66 39 0.0 0.0 0.00 0.00 0.00 59 1010.4
20260509151024 66 13 0.0 0.0 0.00 0.00 0.00 61 1010.3
20260509150910 66 355 0.0 0.0 0.00 0.00 0.00 61 1010.4
20260509150836 66 334 0.0 0.0 0.00 0.00 0.00 60 1010.4
20260509150732 66 334 0.0 0.0 0.00 0.00 0.00 60 1010.4
20260509150618 66 27 0.0 0.0 0.00 0.00 0.00 61 1010.5
20260509150523 66 333 0.0 0.0 0.00 0.00 0.00 61 1010.6
20260509150410 66 300 0.0 0.0 0.00 0.00 0.00 61 1010.7
20260509150316 66 285 0.0 0.0 0.00 0.00 0.00 62 1010.7
20260509150233 66 61 0.0 0.0 0.00 0.00 0.00 61 1010.7
20260509150122 65 74 0.0 0.0 0.00 0.00 0.00 62 1010.5
20260509150112 65 74 0.0 0.0 0.00 0.00 0.00 62 1010.8
20260509150026 65 59 0.0 0.0 0.00 0.00 0.00 62 1010.8
20260509145918 65 28 0.0 0.0 0.00 0.00 0.00 62 1010.8
20260509145825 65 312 0.0 0.0 0.00 0.00 0.00 62 1010.7
20260509145738 65 292 0.0 0.0 0.00 0.00 0.00 61 1010.8
20260509145644 65 277 0.0 0.0 0.00 0.00 0.00 60 1010.8
20260509145536 65 307 0.0 0.0 0.00 0.00 0.00 61 1010.7
20260509145422 65 34 0.0 0.0 0.00 0.00 0.00 62 1010.6
20260509145328 65 327 0.0 0.0 0.00 0.00 0.00 61 1010.7
20260509145215 65 257 0.0 0.0 0.00 0.00 0.00 60 1010.7
20260509145121 65 285 0.0 0.0 0.00 0.00 0.00 60 1010.7
20260509145012 65 290 0.0 0.0 0.00 0.00 0.00 62 1010.8
20260509144925 65 26 0.0 0.0 0.00 0.00 0.00 62 1010.8
20260509144811 65 304 0.0 0.0 0.00 0.00 0.00 62 1010.8
20260509144718 65 186 0.0 0.0 0.00 0.00 0.00 61 1010.8
20260509144624 65 46 0.0 0.0 0.00 0.00 0.00 62 1010.7
20260509144540 64 9 0.0 0.0 0.00 0.00 0.00 61 1010.6
20260509144510 65 301 0.0 0.0 0.00 0.00 0.00 62 1010.7
20260509144427 65 351 0.0 1.0 0.00 0.00 0.00 62 1010.7
20260509144333 65 5 0.0 1.0 0.00 0.00 0.00 62 1010.7
20260509144219 64 55 0.0 1.0 0.00 0.00 0.00 63 1010.8
20260509144125 64 21 0.0 1.0 0.00 0.00 0.00 62 1010.8
20260509144012 64 61 0.0 1.0 0.00 0.00 0.00 61 1010.7
20260509143922 64 92 0.0 1.0 0.00 0.00 0.00 61 1010.7
20260509143809 64 71 0.0 3.0 0.00 0.00 0.00 62 1010.6
20260509143722 64 67 0.0 3.0 0.00 0.00 0.00 61 1010.6
20260509143628 64 82 0.0 3.0 0.00 0.00 0.00 64 1010.6
20260509143515 64 308 0.0 3.0 0.00 0.00 0.00 63 1010.6
20260509143421 64 13 0.0 3.0 0.00 0.00 0.00 63 1010.6
20260509143312 63 32 0.0 3.0 0.00 0.00 0.00 64 1010.6
20260509143218 63 51 0.0 3.0 0.00 0.00 0.00 64 1010.6
20260509143131 63 102 0.0 3.0 0.00 0.00 0.00 65 1010.6
20260509143017 63 38 0.0 0.0 0.00 0.00 0.00 65 1010.6
20260509143007 62 301 0.0 0.0 0.00 0.00 0.00 65 1010.5
20260509142923 63 336 0.0 0.0 0.00 0.00 0.00 68 1010.6
20260509142814 63 61 0.0 0.0 0.00 0.00 0.00 69 1010.6
20260509142720 63 71 0.0 0.0 0.00 0.00 0.00 67 1010.6
20260509142626 62 90 0.0 0.0 0.00 0.00 0.00 65 1010.6
20260509142540 62 254 0.0 0.0 0.00 0.00 0.00 64 1010.7
20260509142425 62 192 0.0 0.0 0.00 0.00 0.00 66 1010.7
20260509142331 62 88 0.0 0.0 0.00 0.00 0.00 65 1010.9
20260509142227 62 30 0.0 0.0 0.00 0.00 0.00 66 1010.9
20260509142113 62 55 0.0 1.0 0.00 0.00 0.00 65 1010.9
20260509142039 62 73 0.0 1.0 0.00 0.00 0.00 66 1010.9
20260509141931 62 74 0.0 1.0 0.00 0.00 0.00 68 1010.9
20260509141810 61 74 0.0 1.0 0.00 0.00 0.00 66 1010.8
20260509141722 61 74 0.0 1.0 0.00 0.00 0.00 65 1010.8
20260509141613 61 59 0.0 1.0 0.00 0.00 0.00 67 1010.8
20260509141550 61 271 0.0 1.0 0.00 0.00 0.00 67 1010.6
20260509141519 61 152 0.0 1.0 0.00 0.00 0.00 67 1010.8
20260509141425 61 158 0.0 1.0 0.00 0.00 0.00 66 1010.8
20260509141311 61 271 0.0 0.0 0.00 0.00 0.00 66 1010.8
20260509141223 61 272 0.0 1.0 0.00 0.00 0.00 65 1010.8
20260509141113 61 84 0.0 1.0 0.00 0.00 0.00 67 1010.8
20260509141021 61 76 0.0 1.0 0.00 0.00 0.00 67 1010.8
20260509140954 61 85 0.0 1.0 0.00 0.00 0.00 66 1010.8
20260509140811 61 56 0.0 1.0 0.00 0.00 0.00 66 1010.8
20260509140724 61 50 0.0 1.0 0.00 0.00 0.00 66 1010.8
20260509140610 61 30 0.0 1.0 0.00 0.00 0.00 67 1010.9
20260509140521 61 278 0.0 1.0 0.00 0.00 0.00 67 1010.9
20260509140454 61 275 0.0 1.0 0.00 0.00 0.00 67 1011.0
20260509140338 61 88 0.0 1.0 0.00 0.00 0.00 68 1011.0
20260509140250 61 90 0.0 1.0 0.00 0.00 0.00 67 1011.0
20260509140116 61 86 0.0 1.0 0.00 0.00 0.00 69 1011.1
20260509140106 60 86 0.0 1.0 0.00 0.00 0.00 69 1010.9
20260509140023 60 203 0.0 1.0 0.00 0.00 0.00 70 1011.1
20260509135909 60 202 0.0 1.0 0.00 0.00 0.00 69 1011.1
20260509135820 60 202 0.0 1.0 0.00 0.00 0.00 70 1011.1
20260509135725 60 202 0.0 1.0 0.00 0.00 0.00 69 1011.1
20260509135611 60 201 0.0 1.0 0.00 0.00 0.00 69 1011.1
20260509135524 60 201 0.0 1.0 0.00 0.00 0.00 70 1011.1
20260509135411 60 201 0.0 1.0 0.00 0.00 0.00 69 1011.1
20260509135321 60 201 0.0 1.0 0.00 0.00 0.00 70 1011.1
20260509135228 60 165 0.0 1.0 0.00 0.00 0.00 69 1011.2
20260509135142 60 165 0.0 1.0 0.00 0.00 0.00 70 1011.2
20260509135026 60 161 0.0 1.0 0.00 0.00 0.00 70 1011.2
20260509134913 60 71 0.0 1.0 0.00 0.00 0.00 70 1011.2
20260509134839 60 71 0.0 1.0 0.00 0.00 0.00 70 1011.2
20260509134709 60 50 0.0 0.0 0.00 0.00 0.00 70 1011.2
20260509134622 60 50 0.0 0.0 0.00 0.00 0.00 70 1011.2
20260509134605 59 50 0.0 0.0 0.00 0.00 0.00 70 1011.1
20260509134528 60 49 0.0 0.0 0.00 0.00 0.00 70 1011.2
20260509134415 59 112 0.0 0.0 0.00 0.00 0.00 70 1011.2
20260509134321 59 112 0.0 0.0 0.00 0.00 0.00 71 1011.3
20260509134227 59 112 0.0 0.0 0.00 0.00 0.00 72 1011.3
20260509134117 59 112 0.0 0.0 0.00 0.00 0.00 72 1011.3
20260509134030 59 112 0.0 0.0 0.00 0.00 0.00 73 1011.4
20260509133916 59 112 0.0 0.0 0.00 0.00 0.00 71 1011.4
20260509133823 59 112 0.0 0.0 0.00 0.00 0.00 71 1011.4
20260509133710 59 112 0.0 0.0 0.00 0.00 0.00 71 1011.4
20260509133644 59 116 0.0 0.0 0.00 0.00 0.00 72 1011.4
20260509133533 59 116 0.0 0.0 0.00 0.00 0.00 71 1011.4
20260509133445 59 120 0.0 0.0 0.00 0.00 0.00 71 1011.4
20260509133310 59 179 0.0 0.0 0.00 0.00 0.00 70 1011.5
20260509133216 59 184 0.0 0.0 0.00 0.00 0.00 70 1011.5